ETH3711 EBLG-FAOR

Flight info

Callsign ETH3711
Flight time 10h 7m
Altitude 29000
Route LNO N852 SUTAL DCT GTQ DCT POGOL DCT LASAT DCT MOROK DCT GILIR DCT GEVEA DCT INCUS DCT BALSI DCT RETNO DCT TUPOX DCT MTG DCT DIVKO DCT JUSQO DCT FIRRA DCT SUXER DCT KAMER UR978 CSO/N0492F310 UM2 DJA UB730 DIR UM731 VSA/N0492F330 UM731 RUDAS UQ25 ITROL UQ44 AVAGO AVAGO1C
Aircraft B77L/H-SDE1E2E3FGHIJ2J3J4J5M1RWXY/LB1D1

Departure

Time 2026-05-04 23:25
Airport Liège Airport (EBLG)

Arrival

Time 2026-05-05 09:33
Airport O.R. Tambo International Airport (FAOR)
Time Latitude Longitude Altitude Speed Heading
2026-05-04 22:44 50.63658 5.43163 644 ft 0 kts 315°
2026-05-04 23:12 50.63651 5.43172 650 ft 4 kts 316°
2026-05-04 23:12 50.63631 5.43201 646 ft 4 kts 322°
2026-05-04 23:13 50.63610 5.43226 643 ft 4 kts 328°
2026-05-04 23:13 50.63586 5.43246 647 ft 4 kts 338°
2026-05-04 23:13 50.63577 5.43251 643 ft 1 kts 342°
2026-05-04 23:17 50.63590 5.43252 649 ft 3 kts
2026-05-04 23:17 50.63605 5.43268 648 ft 3 kts 46°
2026-05-04 23:17 50.63613 5.43297 643 ft 4 kts 72°
2026-05-04 23:17 50.63629 5.43364 643 ft 8 kts 60°
2026-05-04 23:18 50.63652 5.43414 647 ft 5 kts 64°
2026-05-04 23:18 50.63641 5.43466 647 ft 5 kts 122°
2026-05-04 23:18 50.63613 5.43517 645 ft 9 kts 133°
2026-05-04 23:18 50.63560 5.43605 635 ft 8 kts 135°
2026-05-04 23:19 50.63548 5.43664 637 ft 6 kts 72°
2026-05-04 23:19 50.63573 5.43719 643 ft 6 kts 47°
2026-05-04 23:19 50.63605 5.43769 642 ft 7 kts 45°
2026-05-04 23:19 50.63652 5.43844 641 ft 14 kts 45°
2026-05-04 23:20 50.63737 5.43979 637 ft 19 kts 45°
2026-05-04 23:20 50.63829 5.44125 642 ft 19 kts 45°
2026-05-04 23:20 50.63921 5.44270 639 ft 19 kts 45°
2026-05-04 23:20 50.64013 5.44415 637 ft 19 kts 45°
2026-05-04 23:21 50.64106 5.44562 634 ft 20 kts 45°
2026-05-04 23:21 50.64211 5.44729 627 ft 22 kts 45°
2026-05-04 23:21 50.64318 5.44900 621 ft 22 kts 45°
2026-05-04 23:21 50.64425 5.45069 624 ft 21 kts 45°
2026-05-04 23:22 50.64502 5.45190 622 ft 13 kts 45°
2026-05-04 23:22 50.64562 5.45285 617 ft 11 kts 45°
2026-05-04 23:22 50.64607 5.45364 610 ft 10 kts 65°
2026-05-04 23:22 50.64591 5.45423 622 ft 6 kts 140°
2026-05-04 23:23 50.64551 5.45440 610 ft 6 kts 175°
2026-05-04 23:23 50.64510 5.45442 615 ft 6 kts 179°
2026-05-04 23:23 50.64469 5.45452 611 ft 6 kts 155°
2026-05-04 23:23 50.64432 5.45485 626 ft 6 kts 178°
2026-05-04 23:24 50.64405 5.45459 609 ft 0 kts 221°
2026-05-04 23:24 50.64384 5.45429 617 ft 27 kts 223°
2026-05-04 23:24 50.64047 5.44894 622 ft 108 kts 225°
2026-05-04 23:25 50.63392 5.43858 648 ft 156 kts 225°
2026-05-04 23:25 50.62551 5.42517 761 ft 179 kts 226°
2026-05-04 23:25 50.61697 5.41070 1108 ft 185 kts 225°
2026-05-04 23:25 50.60736 5.39580 1571 ft 198 kts 225°
2026-05-04 23:26 50.59785 5.38081 2463 ft 193 kts 226°
2026-05-04 23:26 50.58855 5.36414 2673 ft 211 kts 244°
2026-05-04 23:26 50.58683 5.34133 2816 ft 220 kts 288°
2026-05-04 23:26 50.59159 5.32689 2996 ft 224 kts 305°
2026-05-04 23:27 50.60045 5.30619 3331 ft 232 kts 302°
2026-05-04 23:27 50.60889 5.28421 3814 ft 236 kts 301°
2026-05-04 23:27 50.61717 5.26190 4338 ft 236 kts 300°
2026-05-04 23:27 50.62515 5.23954 4819 ft 240 kts 300°
2026-05-04 23:28 50.63337 5.21679 5307 ft 239 kts 301°
2026-05-04 23:28 50.64176 5.19405 5769 ft 241 kts 301°
2026-05-04 23:28 50.65027 5.17116 5948 ft 244 kts 301°
2026-05-04 23:28 50.65890 5.14801 5970 ft 246 kts 301°
2026-05-04 23:29 50.66781 5.12521 5909 ft 242 kts 313°
2026-05-04 23:29 50.68151 5.11076 5970 ft 241 kts 349°
2026-05-04 23:29 50.69790 5.11185 6189 ft 243 kts 17°
2026-05-04 23:29 50.71414 5.12214 6341 ft 260 kts 26°
2026-05-04 23:30 50.73010 5.13592 6791 ft 260 kts 28°
2026-05-04 23:30 50.74564 5.15076 7235 ft 268 kts 40°
2026-05-04 23:30 50.75676 5.17480 7504 ft 280 kts 71°
2026-05-04 23:30 50.75889 5.20544 7937 ft 288 kts 101°
2026-05-04 23:31 50.75158 5.23486 8448 ft 290 kts 118°
2026-05-04 23:31 50.74173 5.26308 8987 ft 295 kts 118°
2026-05-04 23:31 50.73184 5.29159 9628 ft 297 kts 118°
2026-05-04 23:31 50.72181 5.32021 10217 ft 301 kts 118°
2026-05-04 23:32 50.71139 5.34998 10375 ft 320 kts 118°
2026-05-04 23:32 50.70039 5.38153 10661 ft 334 kts 118°
2026-05-04 23:32 50.68906 5.41408 11132 ft 342 kts 118°
2026-05-04 23:32 50.67755 5.44727 11706 ft 347 kts 118°
2026-05-04 23:33 50.66593 5.48075 12358 ft 349 kts 118°
2026-05-04 23:33 50.65422 5.51440 13018 ft 352 kts 118°
2026-05-04 23:33 50.64253 5.54794 13620 ft 356 kts 118°
2026-05-04 23:33 50.63061 5.58226 14188 ft 359 kts 118°
2026-05-04 23:34 50.61854 5.61693 14749 ft 362 kts 120°
2026-05-04 23:34 50.60634 5.65183 15304 ft 365 kts 120°
2026-05-04 23:34 50.59375 5.68663 15806 ft 365 kts 127°
2026-05-04 23:34 50.57587 5.71469 16099 ft 367 kts 151°
2026-05-04 23:35 50.55266 5.73069 16581 ft 364 kts 162°
2026-05-04 23:35 50.52861 5.74421 17078 ft 369 kts 162°
2026-05-04 23:35 50.50448 5.75813 17635 ft 371 kts 162°
2026-05-04 23:35 50.48020 5.77223 18203 ft 373 kts 162°
2026-05-04 23:36 50.45576 5.78646 18691 ft 376 kts 162°
2026-05-04 23:36 50.43119 5.80076 19180 ft 378 kts 162°
2026-05-04 23:36 50.40648 5.81516 19697 ft 380 kts 162°
2026-05-04 23:36 50.38165 5.82962 20187 ft 381 kts 162°
2026-05-04 23:37 50.35672 5.84413 20666 ft 384 kts 162°
2026-05-04 23:37 50.33160 5.85876 21138 ft 386 kts 162°
2026-05-04 23:37 50.30635 5.87345 21609 ft 388 kts 162°
2026-05-04 23:37 50.28094 5.88822 22092 ft 390 kts 162°
2026-05-04 23:38 50.25544 5.90302 22554 ft 392 kts 163°
2026-05-04 23:38 50.22973 5.91791 23001 ft 395 kts 163°
2026-05-04 23:38 50.20392 5.93287 23469 ft 397 kts 163°
2026-05-04 23:38 50.17793 5.94792 23865 ft 399 kts 163°
2026-05-04 23:39 50.15183 5.96300 24251 ft 401 kts 163°
2026-05-04 23:39 50.12567 5.97812 24692 ft 401 kts 163°
2026-05-04 23:39 50.09944 5.99322 25098 ft 403 kts 164°
2026-05-04 23:39 50.07343 6.00816 25460 ft 405 kts 164°
2026-05-04 23:40 50.04691 6.02343 25824 ft 407 kts 164°
2026-05-04 23:40 50.02028 6.03877 26161 ft 410 kts 164°
2026-05-04 23:40 49.99337 6.05425 26510 ft 413 kts 164°
2026-05-04 23:40 49.96637 6.06976 26900 ft 415 kts 164°
2026-05-04 23:41 49.93893 6.08548 27298 ft 416 kts 164°
2026-05-04 23:41 49.91172 6.10103 27685 ft 417 kts 164°
2026-05-04 23:41 49.88473 6.11644 28046 ft 420 kts 164°
2026-05-04 23:41 49.85690 6.13257 28396 ft 423 kts 162°
2026-05-04 23:42 49.82981 6.15081 28748 ft 426 kts 160°
2026-05-04 23:42 49.80256 6.16951 28886 ft 432 kts 160°
2026-05-04 23:42 49.74728 6.20725 28955 ft 443 kts 160°
2026-05-04 23:43 49.68973 6.24629 28954 ft 455 kts 160°
2026-05-04 23:43 49.63135 6.28575 28957 ft 466 kts 160°
2026-05-04 23:44 49.57100 6.32499 28936 ft 475 kts 161°
2026-05-04 23:44 49.50979 6.36435 28939 ft 477 kts 160°
2026-05-04 23:45 49.44865 6.40399 28943 ft 477 kts 160°
2026-05-04 23:45 49.38791 6.44520 28938 ft 477 kts 159°
2026-05-04 23:46 49.32737 6.48659 28940 ft 476 kts 159°
2026-05-04 23:46 49.26694 6.52756 28941 ft 474 kts 159°
2026-05-04 23:47 49.20668 6.56816 28952 ft 473 kts 160°
2026-05-04 23:47 49.14643 6.60869 28954 ft 473 kts 160°
2026-05-04 23:48 49.08622 6.64906 28941 ft 472 kts 160°
2026-05-04 23:48 49.02602 6.68884 28946 ft 470 kts 163°
2026-05-04 23:49 48.96321 6.71155 28974 ft 462 kts 177°
2026-05-04 23:49 48.89950 6.71375 28963 ft 456 kts 185°
2026-05-04 23:50 48.83613 6.71027 28954 ft 454 kts 186°
2026-05-04 23:50 48.77340 6.70716 28963 ft 452 kts 186°
2026-05-04 23:51 48.71054 6.70510 28959 ft 453 kts 185°
2026-05-04 23:51 48.64742 6.70284 28943 ft 453 kts 186°
2026-05-04 23:52 48.58454 6.70029 28962 ft 452 kts 185°
2026-05-04 23:52 48.52171 6.69709 28973 ft 456 kts 185°
2026-05-04 23:53 48.45825 6.69546 28963 ft 456 kts 185°
2026-05-04 23:53 48.39485 6.69296 28964 ft 456 kts 185°
2026-05-04 23:54 48.33131 6.69050 28967 ft 458 kts 185°
2026-05-04 23:54 48.26757 6.68807 28960 ft 458 kts 185°
2026-05-04 23:55 48.20406 6.68568 28959 ft 456 kts 184°
2026-05-04 23:56 48.10932 6.68215 28963 ft 452 kts 184°
2026-05-04 23:56 48.04648 6.67983 28960 ft 451 kts 184°
2026-05-04 23:57 47.98380 6.67751 28968 ft 450 kts 184°
2026-05-04 23:57 47.92112 6.67519 28972 ft 451 kts 184°
2026-05-04 23:58 47.85818 6.67286 28972 ft 453 kts 184°
2026-05-04 23:58 47.79521 6.67052 28956 ft 454 kts 184°
2026-05-04 23:59 47.73247 6.66821 28969 ft 455 kts 184°
2026-05-04 23:59 47.66919 6.66577 28968 ft 455 kts 184°
2026-05-05 00:00 47.60576 6.66353 28962 ft 456 kts 183°
2026-05-05 00:00 47.54221 6.66130 28968 ft 456 kts 183°
2026-05-05 00:01 47.47884 6.65899 28972 ft 455 kts 183°
2026-05-05 00:01 47.41639 6.65013 28973 ft 448 kts 198°
2026-05-05 00:02 47.36043 6.61107 28969 ft 447 kts 215°
2026-05-05 00:02 47.31329 6.55169 28982 ft 447 kts 220°
2026-05-05 00:03 47.26615 6.49185 28995 ft 448 kts 219°
2026-05-05 00:03 47.21842 6.43223 28989 ft 451 kts 219°
2026-05-05 00:04 47.17089 6.37297 28983 ft 450 kts 219°
2026-05-05 00:04 47.12323 6.31365 28975 ft 447 kts 219°
2026-05-05 00:05 47.07323 6.26081 28975 ft 443 kts 205°
2026-05-05 00:05 47.01494 6.23203 28984 ft 444 kts 191°
2026-05-05 00:06 46.95320 6.22308 28984 ft 447 kts 187°
2026-05-05 00:06 46.89118 6.21484 28988 ft 447 kts 187°
2026-05-05 00:07 46.82921 6.20730 28989 ft 447 kts 186°
2026-05-05 00:07 46.76708 6.19963 28983 ft 449 kts 187°
2026-05-05 00:08 46.70485 6.19148 28986 ft 449 kts 187°
2026-05-05 00:08 46.64256 6.18312 28984 ft 450 kts 187°
2026-05-05 00:09 46.58007 6.17490 28990 ft 451 kts 187°
2026-05-05 00:09 46.51768 6.16650 28981 ft 450 kts 187°
2026-05-05 00:10 46.45549 6.15851 28986 ft 449 kts 187°
2026-05-05 00:10 46.39347 6.15036 28977 ft 446 kts 187°
2026-05-05 00:11 46.33158 6.14198 29001 ft 447 kts 187°
2026-05-05 00:11 46.26943 6.13405 28995 ft 449 kts 186°
2026-05-05 00:12 46.20796 6.12210 29006 ft 449 kts 190°
2026-05-05 00:12 46.14618 6.10819 28993 ft 449 kts 190°
2026-05-05 00:13 46.08426 6.09445 28991 ft 450 kts 190°
2026-05-05 00:13 46.02210 6.08016 28996 ft 452 kts 190°
2026-05-05 00:14 45.96005 6.06693 28993 ft 451 kts 190°
2026-05-05 00:14 45.89802 6.05344 28987 ft 451 kts 190°
2026-05-05 00:15 45.84656 6.04218 28991 ft 450 kts 190°
2026-05-05 00:15 45.78481 6.02856 28982 ft 449 kts 190°
2026-05-05 00:16 45.72314 6.01503 28985 ft 449 kts 190°
2026-05-05 00:16 45.66119 6.00136 29000 ft 451 kts 190°
2026-05-05 00:17 45.59911 5.98767 28993 ft 452 kts 189°
2026-05-05 00:17 45.53677 5.97401 28979 ft 454 kts 189°
2026-05-05 00:18 45.47441 5.96027 28975 ft 452 kts 191°
2026-05-05 00:18 45.41303 5.94132 28982 ft 451 kts 193°
2026-05-05 00:19 45.35186 5.92200 28977 ft 451 kts 193°
2026-05-05 00:19 45.29060 5.90280 28979 ft 451 kts 193°
2026-05-05 00:20 45.22925 5.88374 28969 ft 451 kts 192°
2026-05-05 00:20 45.16787 5.86470 28965 ft 452 kts 192°
2026-05-05 00:20 45.13705 5.85517 29103 ft 455 kts 192°
2026-05-05 00:21 45.10615 5.84568 29512 ft 453 kts 192°
2026-05-05 00:21 45.07548 5.83620 30030 ft 448 kts 192°
2026-05-05 00:21 45.04511 5.82679 30481 ft 446 kts 192°
2026-05-05 00:21 45.01485 5.81745 30772 ft 447 kts 192°
2026-05-05 00:22 44.98444 5.80809 30871 ft 448 kts 192°
2026-05-05 00:22 44.92358 5.78935 30961 ft 446 kts 192°
2026-05-05 00:23 44.86330 5.77092 30961 ft 445 kts 192°
2026-05-05 00:23 44.80245 5.75229 30953 ft 444 kts 192°
2026-05-05 00:24 44.74246 5.73392 30958 ft 444 kts 192°
2026-05-05 00:24 44.68208 5.71552 30971 ft 444 kts 192°
2026-05-05 00:25 44.62152 5.69709 30975 ft 445 kts 192°
2026-05-05 00:25 44.56094 5.67871 30966 ft 446 kts 192°
2026-05-05 00:26 44.50031 5.66033 30942 ft 445 kts 192°
2026-05-05 00:26 44.43979 5.64203 30968 ft 445 kts 191°
2026-05-05 00:27 44.37940 5.62265 30951 ft 446 kts 195°
2026-05-05 00:27 44.32133 5.59228 30961 ft 446 kts 200°
2026-05-05 00:28 44.26357 5.56003 30936 ft 447 kts 200°
2026-05-05 00:28 44.20558 5.52818 30946 ft 448 kts 200°
2026-05-05 00:29 44.14745 5.49646 30957 ft 449 kts 200°
2026-05-05 00:29 44.08915 5.46457 30935 ft 451 kts 200°
2026-05-05 00:30 44.03067 5.43274 30940 ft 452 kts 200°
2026-05-05 00:30 43.97209 5.40086 30946 ft 452 kts 200°
2026-05-05 00:31 43.91348 5.36921 30938 ft 452 kts 200°
2026-05-05 00:31 43.85527 5.33788 30935 ft 452 kts 200°
2026-05-05 00:32 43.79674 5.30630 30935 ft 452 kts 200°
2026-05-05 00:32 43.73766 5.27459 30938 ft 452 kts 201°
2026-05-05 00:33 43.67939 5.24332 30935 ft 452 kts 201°
2026-05-05 00:33 43.62078 5.21202 30941 ft 452 kts 201°
2026-05-05 00:34 43.56210 5.18070 30933 ft 452 kts 201°
2026-05-05 00:34 43.50341 5.14939 30933 ft 452 kts 201°
2026-05-05 00:35 43.44477 5.11819 30939 ft 452 kts 201°
2026-05-05 00:35 43.38692 5.08447 30938 ft 451 kts 207°
2026-05-05 00:36 43.33396 5.03868 30934 ft 451 kts 214°
2026-05-05 00:36 43.28247 4.98942 30925 ft 450 kts 214°
2026-05-05 00:37 43.23086 4.94071 30939 ft 450 kts 214°
2026-05-05 00:37 43.17952 4.89260 30915 ft 450 kts 214°
2026-05-05 00:38 43.12752 4.84388 30919 ft 449 kts 214°
2026-05-05 00:38 43.07428 4.80161 30910 ft 447 kts 197°
2026-05-05 00:38 43.04355 4.79460 30924 ft 450 kts 185°
2026-05-05 00:39 43.01219 4.79615 30905 ft 456 kts 174°
2026-05-05 00:39 42.95081 4.82169 30909 ft 465 kts 165°
2026-05-05 00:40 42.88966 4.85081 30909 ft 467 kts 165°
2026-05-05 00:40 42.82773 4.87882 30930 ft 470 kts 166°
2026-05-05 00:41 42.76565 4.90604 30917 ft 468 kts 166°
2026-05-05 00:41 42.70339 4.93071 30930 ft 464 kts 171°
2026-05-05 00:42 42.64047 4.95011 30919 ft 464 kts 171°
2026-05-05 00:42 42.57765 4.97005 30917 ft 463 kts 171°
2026-05-05 00:43 42.51487 4.98992 30919 ft 463 kts 171°
2026-05-05 00:43 42.45226 5.00965 30921 ft 462 kts 171°
2026-05-05 00:44 42.38964 5.02940 30929 ft 462 kts 171°
2026-05-05 00:44 42.32708 5.04907 30927 ft 462 kts 171°
2026-05-05 00:45 42.26444 5.06882 30925 ft 463 kts 172°
2026-05-05 00:45 42.20167 5.08848 30938 ft 464 kts 172°
2026-05-05 00:46 42.13874 5.10818 30937 ft 465 kts 172°
2026-05-05 00:46 42.07604 5.12777 30918 ft 466 kts 172°
2026-05-05 00:47 42.01283 5.14747 30932 ft 467 kts 172°
2026-05-05 00:47 41.94947 5.16716 30942 ft 468 kts 172°
2026-05-05 00:48 41.88603 5.18687 30933 ft 468 kts 172°
2026-05-05 00:48 41.82255 5.20651 30937 ft 468 kts 173°
2026-05-05 00:49 41.75898 5.22617 30942 ft 469 kts 172°
2026-05-05 00:49 41.69543 5.24577 30943 ft 469 kts 173°
2026-05-05 00:50 41.63192 5.26619 30932 ft 471 kts 169°
2026-05-05 00:50 41.56909 5.29168 30946 ft 472 kts 169°
2026-05-05 00:51 41.50661 5.31717 30952 ft 473 kts 169°
2026-05-05 00:51 41.44357 5.34280 30940 ft 473 kts 169°
2026-05-05 00:52 41.38078 5.36815 30958 ft 470 kts 169°
2026-05-05 00:52 41.31816 5.39327 30956 ft 470 kts 169°
2026-05-05 00:53 41.25573 5.41808 30957 ft 468 kts 169°
2026-05-05 00:53 41.19336 5.44314 30951 ft 468 kts 170°
2026-05-05 00:54 41.13106 5.46809 30960 ft 467 kts 170°
2026-05-05 00:54 41.06885 5.49290 30964 ft 466 kts 170°
2026-05-05 00:55 41.00673 5.51764 30971 ft 466 kts 170°
2026-05-05 00:55 40.94472 5.54226 30967 ft 465 kts 171°
2026-05-05 00:56 40.88279 5.56679 30981 ft 464 kts 171°
2026-05-05 00:56 40.82089 5.59126 30979 ft 464 kts 171°
2026-05-05 00:57 40.75907 5.61566 30958 ft 464 kts 171°
2026-05-05 00:57 40.69730 5.64002 30982 ft 463 kts 171°
2026-05-05 00:58 40.63563 5.66422 30985 ft 462 kts 171°
2026-05-05 00:58 40.57404 5.68839 30988 ft 461 kts 171°
2026-05-05 00:59 40.51294 5.71236 30979 ft 461 kts 172°
2026-05-05 00:59 40.45109 5.73654 30992 ft 460 kts 172°
2026-05-05 01:00 40.39014 5.76031 30993 ft 459 kts 172°
2026-05-05 01:00 40.32902 5.78413 30981 ft 458 kts 172°
2026-05-05 01:01 40.26793 5.80782 31000 ft 457 kts 172°
2026-05-05 01:01 40.20692 5.83152 31005 ft 458 kts 172°
2026-05-05 01:02 40.14582 5.85514 31006 ft 457 kts 173°
2026-05-05 01:02 40.08423 5.87033 30988 ft 447 kts 180°
2026-05-05 01:03 40.02270 5.88236 31009 ft 447 kts 180°
2026-05-05 01:03 39.96118 5.89468 31010 ft 447 kts 180°
2026-05-05 01:04 39.90983 5.90509 31017 ft 449 kts 180°
2026-05-05 01:04 39.81725 5.92397 31008 ft 450 kts 180°
2026-05-05 01:05 39.75545 5.93654 31019 ft 450 kts 180°
2026-05-05 01:05 39.69352 5.94915 31019 ft 451 kts 180°
2026-05-05 01:06 39.63150 5.96163 30993 ft 451 kts 179°
2026-05-05 01:06 39.56955 5.97415 31014 ft 451 kts 179°
2026-05-05 01:07 39.50789 5.98650 31031 ft 451 kts 179°
2026-05-05 01:07 39.44582 5.99900 31026 ft 451 kts 179°
2026-05-05 01:08 39.38368 6.01145 31023 ft 452 kts 179°
2026-05-05 01:08 39.32153 6.02392 31031 ft 452 kts 179°
2026-05-05 01:09 39.25918 6.03638 31036 ft 454 kts 179°
2026-05-05 01:09 39.19657 6.04893 31032 ft 456 kts 179°
2026-05-05 01:10 39.13384 6.06138 31043 ft 456 kts 178°
2026-05-05 01:10 39.07100 6.07390 31023 ft 457 kts 178°
2026-05-05 01:11 39.00811 6.08642 31028 ft 458 kts 178°
2026-05-05 01:11 38.94498 6.09887 30999 ft 460 kts 178°
2026-05-05 01:12 38.88153 6.11151 31025 ft 463 kts 178°
2026-05-05 01:12 38.81769 6.12449 31020 ft 466 kts 177°
2026-05-05 01:13 38.75360 6.13766 31032 ft 467 kts 178°
2026-05-05 01:13 38.68924 6.14985 31026 ft 468 kts 178°
2026-05-05 01:14 38.62453 6.16242 31038 ft 472 kts 178°
2026-05-05 01:14 38.55955 6.17496 31024 ft 471 kts 179°
2026-05-05 01:15 38.49488 6.18764 31025 ft 469 kts 178°
2026-05-05 01:15 38.43065 6.20090 31021 ft 466 kts 178°
2026-05-05 01:16 38.36640 6.21306 31048 ft 467 kts 178°
2026-05-05 01:16 38.30226 6.22611 31019 ft 466 kts 178°
2026-05-05 01:17 38.23810 6.23860 31030 ft 466 kts 178°
2026-05-05 01:17 38.17437 6.25083 31027 ft 466 kts 178°
2026-05-05 01:18 38.11009 6.26316 31031 ft 467 kts 178°
2026-05-05 01:18 38.04565 6.27563 31034 ft 469 kts 178°
2026-05-05 01:19 37.98108 6.28826 31031 ft 470 kts 177°
2026-05-05 01:19 37.91626 6.30082 31037 ft 472 kts 177°
2026-05-05 01:20 37.85116 6.31337 31039 ft 474 kts 177°
2026-05-05 01:20 37.78587 6.32593 31038 ft 475 kts 177°
2026-05-05 01:21 37.72047 6.33924 31019 ft 476 kts 177°
2026-05-05 01:21 37.65489 6.35150 31032 ft 476 kts 177°
2026-05-05 01:22 37.58922 6.36375 31027 ft 478 kts 177°
2026-05-05 01:22 37.52345 6.37630 31004 ft 479 kts 177°
2026-05-05 01:23 37.45796 6.38884 31014 ft 479 kts 177°
2026-05-05 01:23 37.39195 6.40145 31025 ft 480 kts 177°
2026-05-05 01:24 37.32581 6.41405 31020 ft 481 kts 177°
2026-05-05 01:24 37.25964 6.42665 31010 ft 481 kts 177°
2026-05-05 01:25 37.19340 6.43924 31015 ft 481 kts 177°
2026-05-05 01:25 37.12711 6.45177 31017 ft 482 kts 177°
2026-05-05 01:26 37.06072 6.46432 31022 ft 482 kts 177°
2026-05-05 01:26 36.99431 6.47679 31023 ft 480 kts 176°
2026-05-05 01:27 36.92837 6.49014 31011 ft 481 kts 176°
2026-05-05 01:27 36.86204 6.50265 31022 ft 483 kts 177°
2026-05-05 01:28 36.79529 6.51442 31012 ft 485 kts 177°
2026-05-05 01:28 36.72842 6.52676 31026 ft 486 kts 176°
2026-05-05 01:29 36.66150 6.53938 31025 ft 487 kts 176°
2026-05-05 01:29 36.59450 6.55188 31028 ft 486 kts 176°
2026-05-05 01:30 36.52756 6.56444 31052 ft 486 kts 176°
2026-05-05 01:30 36.46074 6.57686 31079 ft 485 kts 176°
2026-05-05 01:31 36.39400 6.58927 31094 ft 485 kts 176°
2026-05-05 01:31 36.32734 6.60163 31101 ft 484 kts 176°
2026-05-05 01:32 36.26093 6.61558 31089 ft 484 kts 174°
2026-05-05 01:32 36.19499 6.63258 31108 ft 485 kts 173°
2026-05-05 01:33 36.12901 6.64983 31076 ft 484 kts 173°
2026-05-05 01:33 36.06356 6.66671 31075 ft 483 kts 173°
2026-05-05 01:34 35.99756 6.68360 31066 ft 485 kts 173°
2026-05-05 01:34 35.93138 6.70043 31051 ft 486 kts 173°
2026-05-05 01:35 35.86507 6.71722 31049 ft 487 kts 173°
2026-05-05 01:35 35.79869 6.73399 31046 ft 488 kts 173°
2026-05-05 01:36 35.73221 6.75084 31048 ft 488 kts 173°
2026-05-05 01:36 35.66569 6.76770 31049 ft 488 kts 173°
2026-05-05 01:37 35.59922 6.78447 31049 ft 487 kts 173°
2026-05-05 01:37 35.53284 6.80118 31042 ft 487 kts 173°
2026-05-05 01:38 35.46641 6.81790 31058 ft 488 kts 173°
2026-05-05 01:38 35.39985 6.83461 31075 ft 489 kts 173°
2026-05-05 01:39 35.33303 6.85136 31066 ft 490 kts 173°
2026-05-05 01:39 35.26615 6.86811 31056 ft 491 kts 173°
2026-05-05 01:40 35.19922 6.88483 31069 ft 491 kts 173°
2026-05-05 01:40 35.13231 6.90152 31075 ft 491 kts 173°
2026-05-05 01:41 35.06533 6.91818 31077 ft 491 kts 173°
2026-05-05 01:41 34.99838 6.93484 31058 ft 491 kts 173°
2026-05-05 01:42 34.93146 6.95145 31058 ft 490 kts 173°
2026-05-05 01:42 34.86461 6.96800 31043 ft 490 kts 173°
2026-05-05 01:43 34.79837 6.98440 31031 ft 489 kts 173°
2026-05-05 01:43 34.73172 7.00115 31019 ft 489 kts 173°
2026-05-05 01:44 34.66510 7.01808 31023 ft 489 kts 173°
2026-05-05 01:44 34.59842 7.03493 31012 ft 488 kts 173°
2026-05-05 01:45 34.53190 7.05167 31004 ft 489 kts 173°
2026-05-05 01:45 34.46527 7.06853 30998 ft 489 kts 173°
2026-05-05 01:46 34.39863 7.08525 30992 ft 490 kts 173°
2026-05-05 01:46 34.33186 7.10202 30992 ft 490 kts 173°
2026-05-05 01:47 34.26498 7.11878 30970 ft 491 kts 173°
2026-05-05 01:47 34.19812 7.13551 30992 ft 491 kts 173°
2026-05-05 01:48 34.13118 7.15222 30983 ft 491 kts 173°
2026-05-05 01:48 34.06424 7.16891 30987 ft 491 kts 173°
2026-05-05 01:49 33.99732 7.18555 30980 ft 491 kts 173°
2026-05-05 01:49 33.93037 7.20219 30982 ft 491 kts 173°
2026-05-05 01:50 33.87480 7.21600 30983 ft 491 kts 173°
2026-05-05 01:50 33.79667 7.23536 30981 ft 490 kts 173°
2026-05-05 01:51 33.72981 7.25189 30963 ft 491 kts 173°
2026-05-05 01:51 33.67424 7.26562 30975 ft 490 kts 173°
2026-05-05 01:52 33.60740 7.28208 30978 ft 490 kts 173°
2026-05-05 01:52 33.54055 7.29856 30978 ft 491 kts 173°
2026-05-05 01:53 33.47361 7.31501 30983 ft 491 kts 173°
2026-05-05 01:53 33.40667 7.33144 30971 ft 491 kts 173°
2026-05-05 01:54 33.33978 7.34783 30979 ft 491 kts 173°
2026-05-05 01:54 33.27289 7.36420 30975 ft 491 kts 173°
2026-05-05 01:55 33.20597 7.38054 30974 ft 491 kts 173°
2026-05-05 01:55 33.13900 7.39686 30971 ft 491 kts 173°
2026-05-05 01:56 33.07204 7.41314 30973 ft 491 kts 173°
2026-05-05 01:56 33.00515 7.42946 30971 ft 491 kts 173°
2026-05-05 01:57 32.93824 7.44572 30969 ft 491 kts 173°
2026-05-05 01:57 32.87132 7.46195 30958 ft 491 kts 173°
2026-05-05 01:58 32.80478 7.47807 30968 ft 491 kts 173°
2026-05-05 01:58 32.73776 7.49424 30964 ft 492 kts 173°
2026-05-05 01:59 32.67068 7.51039 30965 ft 493 kts 173°
2026-05-05 01:59 32.60346 7.52660 30957 ft 493 kts 173°
2026-05-05 02:00 32.53620 7.54278 30967 ft 494 kts 173°
2026-05-05 02:00 32.46880 7.55896 30961 ft 494 kts 173°
2026-05-05 02:01 32.40136 7.57513 30962 ft 494 kts 173°
2026-05-05 02:01 32.33393 7.59128 30942 ft 495 kts 173°
2026-05-05 02:02 32.26636 7.60745 30956 ft 495 kts 173°
2026-05-05 02:02 32.19875 7.62360 30959 ft 496 kts 173°
2026-05-05 02:03 32.13108 7.63972 30953 ft 496 kts 173°
2026-05-05 02:03 32.06339 7.65583 30942 ft 496 kts 173°
2026-05-05 02:04 31.99561 7.67193 30950 ft 497 kts 173°
2026-05-05 02:04 31.92777 7.68804 30948 ft 497 kts 173°
2026-05-05 02:05 31.85994 7.70412 30947 ft 498 kts 173°
2026-05-05 02:05 31.79201 7.72018 30941 ft 498 kts 173°
2026-05-05 02:06 31.72405 7.73633 30943 ft 499 kts 173°
2026-05-05 02:06 31.65596 7.75280 30946 ft 500 kts 173°
2026-05-05 02:07 31.58830 7.76921 30946 ft 500 kts 173°
2026-05-05 02:07 31.52005 7.78572 30930 ft 501 kts 173°
2026-05-05 02:08 31.45175 7.80219 30937 ft 502 kts 173°
2026-05-05 02:08 31.38327 7.81862 30939 ft 502 kts 173°
2026-05-05 02:09 31.31471 7.83509 30934 ft 503 kts 173°
2026-05-05 02:09 31.24611 7.85154 30918 ft 504 kts 174°
2026-05-05 02:10 31.17736 7.86801 30931 ft 505 kts 174°
2026-05-05 02:10 31.10846 7.88448 30933 ft 506 kts 174°
2026-05-05 02:11 31.03945 7.90094 30931 ft 507 kts 174°
2026-05-05 02:11 30.97027 7.91744 30911 ft 508 kts 174°
2026-05-05 02:12 30.86625 7.94220 30929 ft 509 kts 174°
2026-05-05 02:13 30.79675 7.95871 30918 ft 511 kts 174°
2026-05-05 02:13 30.72750 7.97514 30921 ft 511 kts 173°
2026-05-05 02:14 30.65787 7.99162 30907 ft 511 kts 174°
2026-05-05 02:14 30.58827 8.00808 30915 ft 511 kts 174°
2026-05-05 02:15 30.51867 8.02450 30916 ft 511 kts 174°
2026-05-05 02:15 30.44900 8.04093 30909 ft 511 kts 174°
2026-05-05 02:16 30.37929 8.05735 30910 ft 511 kts 174°
2026-05-05 02:16 30.30966 8.07371 30921 ft 511 kts 174°
2026-05-05 02:17 30.24001 8.09009 30910 ft 511 kts 174°
2026-05-05 02:17 30.17036 8.10640 30910 ft 511 kts 174°
2026-05-05 02:18 30.10072 8.12272 30909 ft 511 kts 174°
2026-05-05 02:18 30.03096 8.13906 30919 ft 513 kts 174°
2026-05-05 02:19 29.96145 8.15556 30901 ft 514 kts 174°
2026-05-05 02:19 29.89132 8.17224 30912 ft 515 kts 174°
2026-05-05 02:20 29.82105 8.18893 30895 ft 516 kts 174°
2026-05-05 02:20 29.75059 8.20562 30921 ft 517 kts 174°
2026-05-05 02:21 29.68013 8.22225 30926 ft 518 kts 174°
2026-05-05 02:21 29.60947 8.23892 30913 ft 519 kts 174°
2026-05-05 02:22 29.53883 8.25556 30901 ft 519 kts 174°
2026-05-05 02:22 29.46817 8.27221 30915 ft 518 kts 174°
2026-05-05 02:23 29.39749 8.28882 30907 ft 518 kts 174°
2026-05-05 02:23 29.32684 8.30540 30910 ft 518 kts 174°
2026-05-05 02:24 29.25622 8.32195 30888 ft 518 kts 174°
2026-05-05 02:24 29.18568 8.33845 30904 ft 518 kts 174°
2026-05-05 02:25 29.11502 8.35495 30916 ft 518 kts 174°
2026-05-05 02:25 29.04424 8.37145 30910 ft 519 kts 174°
2026-05-05 02:26 28.97342 8.38798 30882 ft 519 kts 174°
2026-05-05 02:26 28.90268 8.40443 30898 ft 519 kts 174°
2026-05-05 02:27 28.83183 8.42088 30906 ft 519 kts 174°
2026-05-05 02:27 28.76094 8.43733 30908 ft 520 kts 174°
2026-05-05 02:28 28.69001 8.45375 30884 ft 520 kts 174°
2026-05-05 02:28 28.61907 8.47019 30898 ft 520 kts 174°
2026-05-05 02:29 28.54810 8.48661 30913 ft 520 kts 174°
2026-05-05 02:29 28.47710 8.50296 30906 ft 521 kts 174°
2026-05-05 02:30 28.40609 8.51934 30907 ft 521 kts 174°
2026-05-05 02:30 28.33499 8.53570 30899 ft 521 kts 174°
2026-05-05 02:31 28.26386 8.55204 30905 ft 522 kts 174°
2026-05-05 02:31 28.19318 8.56825 30896 ft 522 kts 174°
2026-05-05 02:32 28.12201 8.58457 30894 ft 522 kts 174°
2026-05-05 02:32 28.05077 8.60093 30884 ft 522 kts 174°
2026-05-05 02:33 27.97968 8.61738 30883 ft 522 kts 174°
2026-05-05 02:33 27.90860 8.63381 30883 ft 521 kts 174°
2026-05-05 02:34 27.83759 8.65018 30891 ft 521 kts 174°
2026-05-05 02:34 27.76648 8.66654 30865 ft 521 kts 174°
2026-05-05 02:35 27.69542 8.68288 30880 ft 521 kts 174°
2026-05-05 02:35 27.62436 8.69918 30878 ft 521 kts 174°
2026-05-05 02:36 27.55328 8.71551 30881 ft 522 kts 174°
2026-05-05 02:36 27.48211 8.73178 30877 ft 522 kts 174°
2026-05-05 02:37 27.41098 8.74803 30870 ft 521 kts 174°
2026-05-05 02:37 27.34045 8.76415 30881 ft 521 kts 174°
2026-05-05 02:38 27.26945 8.78033 30875 ft 521 kts 174°
2026-05-05 02:38 27.19839 8.79654 30880 ft 520 kts 174°
2026-05-05 02:39 27.12743 8.81270 30875 ft 521 kts 174°
2026-05-05 02:39 27.06789 8.82621 30875 ft 521 kts 174°
2026-05-05 02:40 26.98524 8.84498 30884 ft 522 kts 174°
2026-05-05 02:40 26.92610 8.85849 30878 ft 522 kts 174°
2026-05-05 02:41 26.85489 8.87483 30875 ft 522 kts 173°
2026-05-05 02:41 26.78356 8.89114 30891 ft 524 kts 174°
2026-05-05 02:42 26.71209 8.90746 30870 ft 525 kts 174°
2026-05-05 02:42 26.64046 8.92380 30872 ft 526 kts 174°
2026-05-05 02:43 26.56881 8.94013 30856 ft 526 kts 173°
2026-05-05 02:43 26.49716 8.95643 30869 ft 526 kts 173°
2026-05-05 02:44 26.42550 8.97271 30884 ft 526 kts 174°
2026-05-05 02:44 26.35376 8.98898 30884 ft 526 kts 173°
2026-05-05 02:45 26.28211 9.00523 30889 ft 526 kts 173°
2026-05-05 02:45 26.21039 9.02147 30892 ft 526 kts 173°
2026-05-05 02:46 26.13873 9.03769 30900 ft 526 kts 173°
2026-05-05 02:46 26.06701 9.05386 30909 ft 526 kts 173°
2026-05-05 02:47 25.99530 9.07006 30912 ft 526 kts 173°
2026-05-05 02:47 25.92361 9.08632 30910 ft 525 kts 173°
2026-05-05 02:48 25.85208 9.10257 30906 ft 524 kts 174°
2026-05-05 02:48 25.78063 9.11879 30916 ft 524 kts 174°
2026-05-05 02:49 25.70925 9.13496 30925 ft 523 kts 174°
2026-05-05 02:49 25.63786 9.15114 30914 ft 523 kts 174°
2026-05-05 02:50 25.56652 9.16725 30926 ft 523 kts 174°
2026-05-05 02:50 25.49562 9.18323 30938 ft 524 kts 174°
2026-05-05 02:51 25.42409 9.19936 30939 ft 525 kts 174°
2026-05-05 02:51 25.35248 9.21550 30939 ft 525 kts 174°
2026-05-05 02:52 25.28090 9.23161 30949 ft 525 kts 174°
2026-05-05 02:52 25.20935 9.24769 30952 ft 525 kts 174°
2026-05-05 02:53 25.13775 9.26376 30941 ft 525 kts 174°
2026-05-05 02:53 25.06616 9.27981 30955 ft 525 kts 174°
2026-05-05 02:54 24.99459 9.29582 30946 ft 524 kts 174°
2026-05-05 02:54 24.92308 9.31180 30949 ft 524 kts 174°
2026-05-05 02:55 24.85164 9.32776 30957 ft 524 kts 174°
2026-05-05 02:55 24.78010 9.34373 30951 ft 524 kts 174°
2026-05-05 02:56 24.70855 9.35965 30927 ft 524 kts 174°
2026-05-05 02:56 24.63708 9.37556 30951 ft 524 kts 174°
2026-05-05 02:57 24.56560 9.39145 30977 ft 525 kts 174°
2026-05-05 02:57 24.49448 9.40724 30992 ft 525 kts 174°
2026-05-05 02:58 24.42225 9.42326 31013 ft 526 kts 174°
2026-05-05 02:58 24.35103 9.43905 31019 ft 526 kts 174°
2026-05-05 02:59 24.28038 9.46211 31029 ft 534 kts 162°
2026-05-05 02:59 24.21372 9.49903 31027 ft 540 kts 153°
2026-05-05 03:00 24.14918 9.54130 30999 ft 540 kts 153°
2026-05-05 03:00 24.08454 9.58330 30961 ft 540 kts 153°
2026-05-05 03:01 24.01970 9.62489 30950 ft 540 kts 153°
2026-05-05 03:01 23.95482 9.66625 30933 ft 540 kts 153°
2026-05-05 03:02 23.88998 9.70755 30933 ft 539 kts 153°
2026-05-05 03:02 23.82505 9.74887 30936 ft 539 kts 153°
2026-05-05 03:03 23.76025 9.79013 30926 ft 539 kts 153°
2026-05-05 03:03 23.69546 9.83137 30924 ft 539 kts 153°
2026-05-05 03:04 23.63058 9.87251 30927 ft 540 kts 153°
2026-05-05 03:04 23.56560 9.91370 30922 ft 541 kts 153°
2026-05-05 03:05 23.50057 9.95490 30921 ft 541 kts 153°
2026-05-05 03:05 23.43550 9.99607 30924 ft 541 kts 153°
2026-05-05 03:06 23.37038 10.03722 30911 ft 541 kts 153°
2026-05-05 03:06 23.30520 10.07837 30917 ft 542 kts 153°
2026-05-05 03:07 23.23995 10.11952 30912 ft 542 kts 153°
2026-05-05 03:07 23.17476 10.16058 30908 ft 542 kts 153°
2026-05-05 03:08 23.10947 10.20165 30905 ft 542 kts 153°
2026-05-05 03:08 23.04418 10.24263 30900 ft 541 kts 153°
2026-05-05 03:09 22.97903 10.28352 30903 ft 541 kts 153°
2026-05-05 03:09 22.91436 10.32409 30904 ft 541 kts 153°
2026-05-05 03:10 22.84922 10.36488 30901 ft 541 kts 153°
2026-05-05 03:10 22.78405 10.40566 30902 ft 541 kts 153°
2026-05-05 03:11 22.71897 10.44634 30898 ft 539 kts 153°
2026-05-05 03:11 22.65408 10.48683 30894 ft 538 kts 153°
2026-05-05 03:12 22.58958 10.52803 30893 ft 538 kts 151°
2026-05-05 03:12 22.52609 10.57096 30894 ft 538 kts 150°
2026-05-05 03:13 22.46267 10.61405 30891 ft 538 kts 150°
2026-05-05 03:13 22.39923 10.65669 30882 ft 537 kts 150°
2026-05-05 03:14 22.33575 10.69911 30886 ft 536 kts 150°
2026-05-05 03:14 22.27228 10.74146 30889 ft 536 kts 150°
2026-05-05 03:15 22.20884 10.78377 30884 ft 536 kts 150°
2026-05-05 03:15 22.14535 10.82606 30881 ft 536 kts 150°
2026-05-05 03:16 22.08188 10.86832 30868 ft 536 kts 150°
2026-05-05 03:16 22.01831 10.91061 30875 ft 537 kts 150°
2026-05-05 03:17 21.95477 10.95281 30877 ft 537 kts 150°
2026-05-05 03:17 21.89112 10.99503 30877 ft 537 kts 150°
2026-05-05 03:18 21.82789 11.03694 30876 ft 537 kts 150°
2026-05-05 03:18 21.76421 11.07910 30873 ft 538 kts 150°
2026-05-05 03:19 21.66868 11.14228 30872 ft 537 kts 150°
2026-05-05 03:19 21.60499 11.18437 30874 ft 537 kts 150°
2026-05-05 03:20 21.54126 11.22639 30857 ft 538 kts 150°
2026-05-05 03:20 21.47753 11.26839 30857 ft 537 kts 150°
2026-05-05 03:21 21.41375 11.31039 30870 ft 537 kts 150°
2026-05-05 03:21 21.35019 11.35221 30857 ft 535 kts 150°
2026-05-05 03:22 21.28694 11.39378 30855 ft 532 kts 150°
2026-05-05 03:22 21.22390 11.43515 30859 ft 530 kts 150°
2026-05-05 03:23 21.16107 11.47634 30858 ft 529 kts 150°
2026-05-05 03:23 21.09859 11.51725 30861 ft 530 kts 150°
2026-05-05 03:24 21.03563 11.55836 30862 ft 530 kts 150°
2026-05-05 03:24 20.98279 11.59284 30859 ft 531 kts 150°
2026-05-05 03:25 20.90937 11.64073 30861 ft 532 kts 150°
2026-05-05 03:25 20.85635 11.67527 30860 ft 533 kts 150°
2026-05-05 03:26 20.79306 11.71646 30866 ft 532 kts 150°
2026-05-05 03:26 20.72984 11.75760 30850 ft 532 kts 150°
2026-05-05 03:27 20.66712 11.79835 30861 ft 530 kts 150°
2026-05-05 03:27 20.60416 11.83926 30860 ft 529 kts 150°
2026-05-05 03:28 20.54127 11.88001 30864 ft 528 kts 150°
2026-05-05 03:28 20.47844 11.92072 30862 ft 528 kts 150°
2026-05-05 03:29 20.41570 11.96142 30865 ft 528 kts 150°
2026-05-05 03:29 20.35293 12.00207 30855 ft 528 kts 150°
2026-05-05 03:30 20.29014 12.04266 30858 ft 528 kts 150°
2026-05-05 03:30 20.22740 12.08319 30865 ft 528 kts 150°
2026-05-05 03:31 20.16460 12.12374 30861 ft 528 kts 150°
2026-05-05 03:31 20.10179 12.16429 30863 ft 528 kts 150°
2026-05-05 03:32 20.03895 12.20479 30842 ft 528 kts 150°
2026-05-05 03:32 19.97623 12.24519 30845 ft 527 kts 150°
2026-05-05 03:33 19.91357 12.28547 30857 ft 526 kts 150°
2026-05-05 03:33 19.85141 12.32544 30850 ft 526 kts 150°
2026-05-05 03:34 19.78879 12.36561 30851 ft 525 kts 150°
2026-05-05 03:34 19.72630 12.40568 30851 ft 525 kts 150°
2026-05-05 03:35 19.66373 12.44579 30850 ft 525 kts 150°
2026-05-05 03:35 19.60122 12.48579 30848 ft 524 kts 151°
2026-05-05 03:36 19.53881 12.52573 30847 ft 524 kts 150°
2026-05-05 03:36 19.47645 12.56561 30847 ft 523 kts 151°
2026-05-05 03:37 19.41409 12.60541 30846 ft 523 kts 151°
2026-05-05 03:37 19.35178 12.64515 30832 ft 523 kts 150°
2026-05-05 03:38 19.28952 12.68484 30846 ft 522 kts 150°
2026-05-05 03:38 19.22731 12.72447 30851 ft 522 kts 151°
2026-05-05 03:39 19.16471 12.76425 31174 ft 526 kts 151°
2026-05-05 03:39 19.13337 12.78420 31593 ft 524 kts 151°
2026-05-05 03:39 19.10225 12.80400 32025 ft 521 kts 152°
2026-05-05 03:40 19.07127 12.82370 32433 ft 519 kts 152°
2026-05-05 03:40 19.04036 12.84332 32739 ft 519 kts 152°
2026-05-05 03:40 18.97706 12.88027 32850 ft 519 kts 159°
2026-05-05 03:41 18.90963 12.90544 32855 ft 511 kts 167°
2026-05-05 03:41 18.84205 12.92672 32858 ft 510 kts 166°
2026-05-05 03:42 18.77428 12.94843 32847 ft 509 kts 166°
2026-05-05 03:42 18.70652 12.97045 32849 ft 509 kts 166°
2026-05-05 03:43 18.63874 12.99256 32828 ft 510 kts 166°
2026-05-05 03:43 18.57077 13.01472 32845 ft 512 kts 166°
2026-05-05 03:44 18.50256 13.03689 32843 ft 514 kts 166°
2026-05-05 03:44 18.43409 13.05912 32845 ft 516 kts 166°
2026-05-05 03:45 18.36547 13.08140 32848 ft 516 kts 166°
2026-05-05 03:45 18.29675 13.10369 32832 ft 517 kts 166°
2026-05-05 03:46 18.22795 13.12597 32835 ft 517 kts 166°
2026-05-05 03:46 18.15927 13.14821 32842 ft 516 kts 166°
2026-05-05 03:47 18.09081 13.17037 32836 ft 514 kts 166°
2026-05-05 03:47 18.02251 13.19245 32838 ft 513 kts 166°
2026-05-05 03:48 17.95439 13.21445 32824 ft 512 kts 166°
2026-05-05 03:48 17.88630 13.23642 32840 ft 511 kts 166°
2026-05-05 03:49 17.81835 13.25835 32839 ft 511 kts 166°
2026-05-05 03:49 17.75028 13.28026 32840 ft 512 kts 166°
2026-05-05 03:50 17.68214 13.30219 32838 ft 512 kts 166°
2026-05-05 03:50 17.61439 13.32399 32840 ft 513 kts 166°
2026-05-05 03:51 17.54612 13.34596 32837 ft 514 kts 166°
2026-05-05 03:51 17.47771 13.36795 32838 ft 514 kts 166°
2026-05-05 03:52 17.40924 13.39002 32842 ft 514 kts 166°
2026-05-05 03:52 17.34078 13.41208 32842 ft 515 kts 166°
2026-05-05 03:53 17.27230 13.43414 32827 ft 515 kts 166°
2026-05-05 03:53 17.20388 13.45614 32836 ft 515 kts 166°
2026-05-05 03:54 17.13540 13.47816 32841 ft 515 kts 166°
2026-05-05 03:54 17.06686 13.50016 32854 ft 515 kts 166°
2026-05-05 03:55 16.99824 13.52220 32850 ft 516 kts 166°
2026-05-05 03:55 16.92956 13.54420 32832 ft 516 kts 166°
2026-05-05 03:56 16.86097 13.56620 32838 ft 516 kts 166°
2026-05-05 03:56 16.79236 13.58817 32842 ft 516 kts 166°
2026-05-05 03:57 16.72412 13.61001 32841 ft 516 kts 166°
2026-05-05 03:57 16.65546 13.63195 32841 ft 516 kts 166°
2026-05-05 03:58 16.58665 13.65395 32837 ft 517 kts 166°
2026-05-05 03:58 16.51793 13.67586 32840 ft 516 kts 166°
2026-05-05 03:59 16.44928 13.69768 32846 ft 516 kts 166°
2026-05-05 03:59 16.38057 13.71947 32839 ft 516 kts 166°
2026-05-05 04:00 16.31187 13.74129 32838 ft 516 kts 166°
2026-05-05 04:00 16.24320 13.76308 32828 ft 516 kts 166°
2026-05-05 04:01 16.17448 13.78488 32837 ft 516 kts 166°
2026-05-05 04:01 16.10584 13.80663 32837 ft 515 kts 166°
2026-05-05 04:02 16.03726 13.82837 32846 ft 515 kts 166°
2026-05-05 04:02 15.96870 13.85005 32832 ft 514 kts 166°
2026-05-05 04:03 15.90023 13.87169 32835 ft 514 kts 167°
2026-05-05 04:03 15.83181 13.89330 32838 ft 514 kts 167°
2026-05-05 04:04 15.76345 13.91488 32826 ft 513 kts 167°
2026-05-05 04:04 15.69513 13.93645 32842 ft 513 kts 167°
2026-05-05 04:05 15.62678 13.95801 32819 ft 513 kts 167°
2026-05-05 04:05 15.55845 13.97953 32820 ft 513 kts 167°
2026-05-05 04:06 15.49054 14.00091 32821 ft 513 kts 167°
2026-05-05 04:06 15.42225 14.02239 32828 ft 512 kts 167°
2026-05-05 04:07 15.35397 14.04388 32811 ft 512 kts 167°
2026-05-05 04:07 15.28578 14.06531 32807 ft 511 kts 167°
2026-05-05 04:08 15.21771 14.08667 32827 ft 512 kts 167°
2026-05-05 04:08 15.14958 14.10805 32826 ft 512 kts 167°
2026-05-05 04:09 15.08135 14.12944 32818 ft 513 kts 167°
2026-05-05 04:09 15.01299 14.15087 32821 ft 513 kts 168°
2026-05-05 04:10 14.94463 14.17226 32818 ft 514 kts 167°
2026-05-05 04:10 14.87655 14.19358 32808 ft 514 kts 167°
2026-05-05 04:11 14.80807 14.21501 32803 ft 515 kts 167°
2026-05-05 04:11 14.73952 14.23644 32806 ft 514 kts 167°
2026-05-05 04:12 14.67109 14.25781 32809 ft 513 kts 167°
2026-05-05 04:12 14.60286 14.27911 32798 ft 512 kts 167°
2026-05-05 04:13 14.54616 14.29681 32802 ft 511 kts 167°
2026-05-05 04:13 14.47808 14.31804 32790 ft 511 kts 167°
2026-05-05 04:14 14.41022 14.33918 32796 ft 509 kts 166°
2026-05-05 04:14 14.34253 14.36024 32795 ft 507 kts 167°
2026-05-05 04:15 14.27501 14.38123 32794 ft 506 kts 167°
2026-05-05 04:15 14.20756 14.40217 32795 ft 506 kts 167°
2026-05-05 04:16 14.14020 14.42308 32789 ft 506 kts 167°
2026-05-05 04:16 14.07276 14.44400 32791 ft 506 kts 167°
2026-05-05 04:17 14.00529 14.46493 32785 ft 507 kts 167°
2026-05-05 04:17 13.93776 14.48586 32788 ft 507 kts 167°
2026-05-05 04:18 13.87015 14.50680 32790 ft 508 kts 167°
2026-05-05 04:18 13.80238 14.52780 32789 ft 508 kts 167°
2026-05-05 04:19 13.73468 14.54872 32788 ft 507 kts 166°
2026-05-05 04:19 13.66713 14.56960 32782 ft 506 kts 166°
2026-05-05 04:20 13.59987 14.59039 32781 ft 504 kts 166°
2026-05-05 04:20 13.53285 14.61110 32783 ft 502 kts 166°
2026-05-05 04:21 13.46603 14.63171 32790 ft 501 kts 166°
2026-05-05 04:21 13.39974 14.65215 32779 ft 501 kts 166°
2026-05-05 04:22 13.33257 14.67288 32787 ft 501 kts 166°
2026-05-05 04:22 13.26614 14.69335 32789 ft 502 kts 166°
2026-05-05 04:23 13.19923 14.71397 32790 ft 502 kts 166°
2026-05-05 04:23 13.13219 14.73457 32794 ft 504 kts 166°
2026-05-05 04:24 13.06498 14.75524 32781 ft 505 kts 166°
2026-05-05 04:25 12.96405 14.78625 32793 ft 505 kts 165°
2026-05-05 04:25 12.89676 14.80693 32791 ft 505 kts 165°
2026-05-05 04:26 12.82945 14.82761 32795 ft 505 kts 165°
2026-05-05 04:26 12.76222 14.84823 32788 ft 504 kts 165°
2026-05-05 04:27 12.69506 14.86881 32791 ft 504 kts 165°
2026-05-05 04:27 12.62785 14.88942 32799 ft 504 kts 165°
2026-05-05 04:28 12.56076 14.91000 32792 ft 503 kts 165°
2026-05-05 04:28 12.49401 14.93045 32805 ft 504 kts 165°
2026-05-05 04:29 12.42681 14.95096 32793 ft 504 kts 165°
2026-05-05 04:29 12.35969 14.97147 32795 ft 504 kts 165°
2026-05-05 04:30 12.29257 14.99200 32796 ft 504 kts 165°
2026-05-05 04:30 12.22541 15.01253 32802 ft 504 kts 165°
2026-05-05 04:31 12.15809 15.03305 32805 ft 505 kts 165°
2026-05-05 04:31 12.09056 15.05288 32803 ft 505 kts 166°
2026-05-05 04:32 12.02270 15.07139 32806 ft 505 kts 167°
2026-05-05 04:32 11.95480 15.08981 32795 ft 505 kts 167°
2026-05-05 04:33 11.88692 15.10847 32796 ft 505 kts 166°
2026-05-05 04:33 11.81903 15.12723 32796 ft 505 kts 166°
2026-05-05 04:34 11.75123 15.14597 32794 ft 505 kts 166°
2026-05-05 04:34 11.68340 15.16470 32798 ft 505 kts 167°
2026-05-05 04:35 11.61557 15.18339 32789 ft 505 kts 166°
2026-05-05 04:35 11.54776 15.20207 32796 ft 505 kts 166°
2026-05-05 04:36 11.48039 15.22064 32799 ft 505 kts 166°
2026-05-05 04:36 11.41254 15.23932 32801 ft 505 kts 166°
2026-05-05 04:37 11.34464 15.25800 32805 ft 506 kts 166°
2026-05-05 04:37 11.27665 15.27671 32806 ft 506 kts 166°
2026-05-05 04:38 11.20871 15.29539 32806 ft 506 kts 166°
2026-05-05 04:38 11.14075 15.31406 32809 ft 506 kts 167°
2026-05-05 04:39 11.07264 15.33277 32809 ft 507 kts 166°
2026-05-05 04:39 11.00459 15.35145 32814 ft 507 kts 166°
2026-05-05 04:40 10.93644 15.37015 32819 ft 507 kts 166°
2026-05-05 04:40 10.86835 15.38884 32816 ft 507 kts 166°
2026-05-05 04:41 10.80018 15.40752 32818 ft 507 kts 166°
2026-05-05 04:41 10.73202 15.42618 32819 ft 507 kts 166°
2026-05-05 04:42 10.66380 15.44487 32821 ft 507 kts 166°
2026-05-05 04:42 10.59564 15.46356 32819 ft 508 kts 166°
2026-05-05 04:43 10.52743 15.48220 32818 ft 507 kts 166°
2026-05-05 04:43 10.45938 15.50081 32819 ft 507 kts 166°
2026-05-05 04:44 10.39128 15.51943 32820 ft 507 kts 166°
2026-05-05 04:44 10.32312 15.53807 32819 ft 507 kts 166°
2026-05-05 04:45 10.25496 15.55670 32821 ft 508 kts 166°
2026-05-05 04:45 10.18681 15.57531 32816 ft 507 kts 166°
2026-05-05 04:46 10.11860 15.59392 32820 ft 507 kts 166°
2026-05-05 04:46 10.05045 15.61253 32823 ft 507 kts 166°
2026-05-05 04:47 9.98276 15.63101 32823 ft 507 kts 166°
2026-05-05 04:47 9.91419 15.64972 32821 ft 507 kts 166°
2026-05-05 04:48 9.84663 15.66814 32827 ft 506 kts 166°
2026-05-05 04:48 9.77855 15.68670 32828 ft 507 kts 166°
2026-05-05 04:49 9.71038 15.70529 32825 ft 507 kts 166°
2026-05-05 04:49 9.64222 15.72387 32824 ft 508 kts 166°
2026-05-05 04:50 9.57389 15.74248 32830 ft 509 kts 166°
2026-05-05 04:50 9.50548 15.76109 32828 ft 509 kts 166°
2026-05-05 04:51 9.43715 15.77969 32836 ft 509 kts 166°
2026-05-05 04:51 9.36879 15.79829 32833 ft 509 kts 166°
2026-05-05 04:52 9.30038 15.81687 32834 ft 509 kts 166°
2026-05-05 04:52 9.23195 15.83546 32836 ft 509 kts 166°
2026-05-05 04:53 9.16355 15.85403 32839 ft 509 kts 166°
2026-05-05 04:53 9.09520 15.87258 32836 ft 508 kts 166°
2026-05-05 04:54 9.02690 15.89113 32844 ft 508 kts 166°
2026-05-05 04:54 8.95855 15.90966 32844 ft 508 kts 166°
2026-05-05 04:55 8.89032 15.92817 32846 ft 508 kts 166°
2026-05-05 04:55 8.82246 15.94657 32847 ft 508 kts 166°
2026-05-05 04:56 8.75377 15.96518 32847 ft 508 kts 166°
2026-05-05 04:56 8.68599 15.98353 32852 ft 508 kts 166°
2026-05-05 04:57 8.61766 16.00206 32848 ft 508 kts 166°
2026-05-05 04:57 8.54939 16.02052 32856 ft 508 kts 166°
2026-05-05 04:58 8.48102 16.03900 32858 ft 509 kts 166°
2026-05-05 04:58 8.41261 16.05751 32855 ft 509 kts 166°
2026-05-05 04:59 8.34411 16.07605 32857 ft 510 kts 166°
2026-05-05 04:59 8.28717 16.09143 32855 ft 510 kts 166°
2026-05-05 05:00 8.21871 16.10994 32858 ft 509 kts 166°
2026-05-05 05:00 8.15022 16.12842 32865 ft 509 kts 166°
2026-05-05 05:01 8.08176 16.14691 32865 ft 509 kts 166°
2026-05-05 05:01 8.01331 16.16540 32863 ft 509 kts 166°
2026-05-05 05:02 7.94477 16.18388 32866 ft 510 kts 166°
2026-05-05 05:02 7.87631 16.20232 32866 ft 509 kts 166°
2026-05-05 05:03 7.80773 16.22080 32860 ft 509 kts 166°
2026-05-05 05:03 7.73924 16.23926 32864 ft 509 kts 166°
2026-05-05 05:04 7.67076 16.25770 32868 ft 509 kts 166°
2026-05-05 05:04 7.60236 16.27612 32866 ft 509 kts 165°
2026-05-05 05:05 7.53390 16.29454 32881 ft 509 kts 165°
2026-05-05 05:05 7.46539 16.31297 32877 ft 510 kts 165°
2026-05-05 05:06 7.39682 16.33142 32881 ft 510 kts 165°
2026-05-05 05:06 7.32821 16.34987 32876 ft 510 kts 165°
2026-05-05 05:07 7.25972 16.36827 32884 ft 509 kts 165°
2026-05-05 05:07 7.19174 16.38652 32879 ft 508 kts 165°
2026-05-05 05:08 7.12346 16.40484 32882 ft 507 kts 165°
2026-05-05 05:08 7.05535 16.42311 32881 ft 506 kts 165°
2026-05-05 05:09 6.98729 16.44137 32889 ft 506 kts 165°
2026-05-05 05:09 6.91933 16.45961 32888 ft 505 kts 165°
2026-05-05 05:10 6.85139 16.47781 32893 ft 506 kts 165°
2026-05-05 05:10 6.78340 16.49604 32889 ft 506 kts 165°
2026-05-05 05:11 6.71535 16.51425 32889 ft 506 kts 165°
2026-05-05 05:11 6.64728 16.53250 32895 ft 506 kts 165°
2026-05-05 05:12 6.57917 16.55072 32897 ft 507 kts 165°
2026-05-05 05:12 6.51139 16.56884 32902 ft 507 kts 165°
2026-05-05 05:13 6.44322 16.58711 32902 ft 507 kts 165°
2026-05-05 05:13 6.37493 16.60539 32909 ft 508 kts 165°
2026-05-05 05:14 6.30666 16.62364 32911 ft 508 kts 165°
2026-05-05 05:14 6.23840 16.64191 32914 ft 507 kts 165°
2026-05-05 05:15 6.17015 16.66016 32914 ft 508 kts 166°
2026-05-05 05:15 6.10181 16.67840 32919 ft 507 kts 166°
2026-05-05 05:16 6.03358 16.69661 32921 ft 507 kts 165°
2026-05-05 05:16 5.96553 16.71476 32924 ft 505 kts 166°
2026-05-05 05:17 5.89772 16.73286 32922 ft 504 kts 166°
2026-05-05 05:17 5.83019 16.75089 32928 ft 501 kts 166°
2026-05-05 05:18 5.76293 16.76886 32931 ft 499 kts 166°
2026-05-05 05:18 5.69588 16.78671 32927 ft 498 kts 166°
2026-05-05 05:19 5.62901 16.80454 32931 ft 497 kts 166°
2026-05-05 05:19 5.56195 16.82226 32932 ft 499 kts 166°
2026-05-05 05:20 5.49466 16.84068 32937 ft 499 kts 165°
2026-05-05 05:20 5.42805 16.85870 32935 ft 498 kts 166°
2026-05-05 05:21 5.36056 16.87613 32954 ft 503 kts 166°
2026-05-05 05:21 5.29307 16.89389 32953 ft 505 kts 166°
2026-05-05 05:22 5.22512 16.91191 32948 ft 505 kts 166°
2026-05-05 05:22 5.15724 16.93013 32945 ft 505 kts 165°
2026-05-05 05:23 5.08967 16.94816 32935 ft 502 kts 165°
2026-05-05 05:23 5.02224 16.96615 32950 ft 502 kts 165°
2026-05-05 05:24 4.95473 16.98408 32945 ft 502 kts 165°
2026-05-05 05:24 4.88720 17.00200 32944 ft 502 kts 165°
2026-05-05 05:25 4.81960 17.01999 32944 ft 502 kts 165°
2026-05-05 05:25 4.75198 17.03792 32944 ft 503 kts 165°
2026-05-05 05:26 4.68443 17.05587 32949 ft 502 kts 165°
2026-05-05 05:26 4.61691 17.07381 32943 ft 501 kts 165°
2026-05-05 05:27 4.55002 17.09159 32945 ft 500 kts 165°
2026-05-05 05:27 4.44924 17.11838 32944 ft 499 kts 165°
2026-05-05 05:28 4.38205 17.13625 32948 ft 499 kts 165°
2026-05-05 05:28 4.31487 17.15409 32947 ft 500 kts 165°
2026-05-05 05:29 4.24766 17.17198 32946 ft 500 kts 165°
2026-05-05 05:29 4.18046 17.18989 32946 ft 500 kts 165°
2026-05-05 05:30 4.11323 17.20777 32948 ft 500 kts 165°
2026-05-05 05:30 4.04593 17.22570 32948 ft 501 kts 165°
2026-05-05 05:31 3.97862 17.24363 32955 ft 500 kts 165°
2026-05-05 05:31 3.91142 17.26152 32946 ft 499 kts 165°
2026-05-05 05:32 3.84434 17.27939 32948 ft 498 kts 165°
2026-05-05 05:32 3.77741 17.29719 32950 ft 497 kts 165°
2026-05-05 05:33 3.71103 17.31485 32948 ft 496 kts 165°
2026-05-05 05:33 3.64430 17.33258 32949 ft 496 kts 165°
2026-05-05 05:34 3.57757 17.35029 32950 ft 496 kts 165°
2026-05-05 05:34 3.51081 17.36802 32945 ft 496 kts 165°
2026-05-05 05:35 3.44409 17.38575 32954 ft 496 kts 165°
2026-05-05 05:35 3.37731 17.40348 32946 ft 497 kts 165°
2026-05-05 05:36 3.31036 17.42129 32951 ft 498 kts 165°
2026-05-05 05:36 3.24329 17.43908 32949 ft 499 kts 165°
2026-05-05 05:37 3.17605 17.45690 32949 ft 500 kts 165°
2026-05-05 05:37 3.10879 17.47477 32950 ft 500 kts 165°
2026-05-05 05:38 3.04148 17.49264 32950 ft 501 kts 165°
2026-05-05 05:38 2.97418 17.51051 32950 ft 500 kts 165°
2026-05-05 05:39 2.90682 17.52837 32947 ft 500 kts 165°
2026-05-05 05:39 2.83962 17.54619 32949 ft 499 kts 165°
2026-05-05 05:40 2.77268 17.56395 32943 ft 497 kts 165°
2026-05-05 05:40 2.70609 17.58162 32939 ft 494 kts 165°
2026-05-05 05:41 2.64010 17.59911 32945 ft 493 kts 165°
2026-05-05 05:41 2.57379 17.61668 32951 ft 493 kts 165°
2026-05-05 05:42 2.50748 17.63428 32950 ft 493 kts 164°
2026-05-05 05:42 2.44117 17.65185 32947 ft 493 kts 164°
2026-05-05 05:43 2.37476 17.66947 32951 ft 494 kts 164°
2026-05-05 05:43 2.30817 17.68680 32947 ft 494 kts 165°
2026-05-05 05:44 2.24158 17.70392 32951 ft 494 kts 165°
2026-05-05 05:44 2.17496 17.72130 32958 ft 494 kts 164°
2026-05-05 05:45 2.10852 17.73898 32947 ft 494 kts 163°
2026-05-05 05:45 2.04208 17.75665 32945 ft 494 kts 164°
2026-05-05 05:46 1.97560 17.77428 32956 ft 494 kts 164°
2026-05-05 05:46 1.90908 17.79189 32953 ft 495 kts 164°
2026-05-05 05:47 1.84255 17.80952 32956 ft 495 kts 164°
2026-05-05 05:47 1.77592 17.82712 32969 ft 497 kts 163°
2026-05-05 05:48 1.72032 17.84187 32954 ft 497 kts 163°
2026-05-05 05:48 1.65346 17.85964 32958 ft 497 kts 164°
2026-05-05 05:49 1.58659 17.87733 32959 ft 497 kts 164°
2026-05-05 05:49 1.51982 17.89505 32950 ft 498 kts 163°
2026-05-05 05:50 1.45260 17.91248 32957 ft 498 kts 163°
2026-05-05 05:50 1.38601 17.93027 32949 ft 494 kts 163°
2026-05-05 05:51 1.31946 17.94826 32971 ft 496 kts 164°
2026-05-05 05:51 1.25257 17.96583 32970 ft 498 kts 164°
2026-05-05 05:52 1.18590 17.98330 32967 ft 498 kts 164°
2026-05-05 05:52 1.11862 18.00119 32972 ft 503 kts 164°
2026-05-05 05:53 1.05125 18.01907 32960 ft 500 kts 164°
2026-05-05 05:53 0.98377 18.03677 32963 ft 501 kts 164°
2026-05-05 05:54 0.91627 18.05458 32967 ft 501 kts 164°
2026-05-05 05:54 0.84914 18.07227 32962 ft 497 kts 164°
2026-05-05 05:55 0.78243 18.09001 32973 ft 495 kts 164°
2026-05-05 05:55 0.71573 18.10761 32982 ft 497 kts 164°
2026-05-05 05:56 0.64886 18.12523 32982 ft 497 kts 164°
2026-05-05 05:56 0.58191 18.14286 32978 ft 497 kts 164°
2026-05-05 05:57 0.51496 18.16064 32983 ft 499 kts 163°
2026-05-05 05:57 0.44789 18.17856 32971 ft 498 kts 164°
2026-05-05 05:58 0.38093 18.19616 32985 ft 496 kts 164°
2026-05-05 05:58 0.31433 18.21384 32983 ft 494 kts 163°
2026-05-05 05:59 0.24770 18.23145 32997 ft 497 kts 164°
2026-05-05 05:59 0.18060 18.24922 32984 ft 499 kts 164°
2026-05-05 06:00 0.11333 18.26709 32988 ft 502 kts 164°
2026-05-05 06:00 0.04625 18.28478 32990 ft 502 kts 165°
2026-05-05 06:01 -0.02193 18.29955 32967 ft 500 kts 168°
2026-05-05 06:01 -0.09033 18.31219 32983 ft 498 kts 168°
2026-05-05 06:02 -0.15847 18.32490 32980 ft 498 kts 168°
2026-05-05 06:02 -0.22649 18.33793 32983 ft 498 kts 168°
2026-05-05 06:03 -0.29453 18.35120 32980 ft 498 kts 168°
2026-05-05 06:03 -0.36249 18.36435 32977 ft 498 kts 168°
2026-05-05 06:04 -0.43048 18.37753 32987 ft 498 kts 168°
2026-05-05 06:04 -0.49862 18.39072 32985 ft 499 kts 168°
2026-05-05 06:05 -0.56694 18.40392 32982 ft 502 kts 168°
2026-05-05 06:05 -0.63572 18.41690 32990 ft 503 kts 167°
2026-05-05 06:06 -0.70441 18.43104 32988 ft 503 kts 168°
2026-05-05 06:06 -0.77296 18.44394 32976 ft 500 kts 168°
2026-05-05 06:07 -0.84118 18.45700 32977 ft 499 kts 168°
2026-05-05 06:07 -0.90867 18.47020 32969 ft 495 kts 167°
2026-05-05 06:08 -0.97631 18.48348 32973 ft 497 kts 168°
2026-05-05 06:08 -1.04455 18.49683 32976 ft 500 kts 168°
2026-05-05 06:09 -1.11300 18.50986 32967 ft 501 kts 168°
2026-05-05 06:09 -1.18150 18.52305 32979 ft 501 kts 168°
2026-05-05 06:10 -1.24976 18.53627 32966 ft 499 kts 168°
2026-05-05 06:10 -1.31794 18.54948 32979 ft 499 kts 168°
2026-05-05 06:11 -1.38628 18.56261 32974 ft 501 kts 168°
2026-05-05 06:11 -1.45481 18.57595 32966 ft 502 kts 168°
2026-05-05 06:12 -1.52346 18.58929 32968 ft 502 kts 168°
2026-05-05 06:12 -1.59203 18.60258 32970 ft 502 kts 168°
2026-05-05 06:13 -1.66061 18.61590 32971 ft 502 kts 168°
2026-05-05 06:13 -1.72927 18.62924 32969 ft 502 kts 168°
2026-05-05 06:14 -1.79775 18.64246 32967 ft 501 kts 168°
2026-05-05 06:14 -1.86624 18.65575 32967 ft 500 kts 168°
2026-05-05 06:15 -1.93412 18.66895 32967 ft 500 kts 168°
2026-05-05 06:15 -2.00237 18.68216 32964 ft 499 kts 168°
2026-05-05 06:16 -2.07053 18.69540 32973 ft 499 kts 168°
2026-05-05 06:16 -2.13867 18.70865 32971 ft 499 kts 168°
2026-05-05 06:17 -2.20697 18.72193 32971 ft 502 kts 168°
2026-05-05 06:17 -2.27550 18.73514 32971 ft 501 kts 168°
2026-05-05 06:18 -2.34390 18.74856 32969 ft 501 kts 168°
2026-05-05 06:18 -2.41242 18.76175 32969 ft 501 kts 168°
2026-05-05 06:19 -2.48078 18.77493 32967 ft 500 kts 168°
2026-05-05 06:19 -2.54906 18.78822 32966 ft 500 kts 168°
2026-05-05 06:20 -2.61741 18.80153 32969 ft 501 kts 168°
2026-05-05 06:20 -2.68586 18.81481 32973 ft 502 kts 168°
2026-05-05 06:21 -2.75443 18.82812 32967 ft 502 kts 168°
2026-05-05 06:21 -2.82308 18.84149 32968 ft 503 kts 168°
2026-05-05 06:22 -2.89177 18.85490 32972 ft 503 kts 168°
2026-05-05 06:22 -2.96054 18.86830 32970 ft 503 kts 168°
2026-05-05 06:23 -3.02922 18.88167 32969 ft 503 kts 168°
2026-05-05 06:23 -3.09792 18.89507 32968 ft 502 kts 168°
2026-05-05 06:24 -3.16651 18.90843 32971 ft 502 kts 168°
2026-05-05 06:24 -3.23506 18.92181 32972 ft 502 kts 168°
2026-05-05 06:25 -3.30358 18.93518 32972 ft 502 kts 168°
2026-05-05 06:25 -3.37162 18.94845 32972 ft 502 kts 168°
2026-05-05 06:26 -3.44012 18.96182 32972 ft 502 kts 168°
2026-05-05 06:26 -3.50864 18.97519 32973 ft 502 kts 168°
2026-05-05 06:27 -3.61152 18.99527 32977 ft 502 kts 168°
2026-05-05 06:28 -3.68013 19.00867 32975 ft 502 kts 168°
2026-05-05 06:28 -3.74868 19.02204 32973 ft 502 kts 168°
2026-05-05 06:29 -3.81720 19.03543 32975 ft 502 kts 168°
2026-05-05 06:29 -3.88574 19.04881 32977 ft 502 kts 168°
2026-05-05 06:30 -3.95428 19.06219 32974 ft 501 kts 168°
2026-05-05 06:30 -4.02275 19.07551 32978 ft 501 kts 168°
2026-05-05 06:31 -4.09122 19.08882 32981 ft 502 kts 168°
2026-05-05 06:31 -4.15976 19.10216 32977 ft 502 kts 168°
2026-05-05 06:32 -4.22825 19.11552 32981 ft 502 kts 168°
2026-05-05 06:32 -4.29681 19.12889 32983 ft 502 kts 168°
2026-05-05 06:33 -4.36530 19.14224 32976 ft 501 kts 168°
2026-05-05 06:33 -4.43373 19.15557 32983 ft 500 kts 168°
2026-05-05 06:34 -4.50207 19.16889 32979 ft 500 kts 168°
2026-05-05 06:34 -4.55879 19.17996 32980 ft 499 kts 168°
2026-05-05 06:35 -4.63798 19.19540 32985 ft 499 kts 168°
2026-05-05 06:35 -4.70614 19.20869 32974 ft 499 kts 168°
2026-05-05 06:36 -4.76323 19.21985 32989 ft 499 kts 168°
2026-05-05 06:36 -4.83104 19.23308 32983 ft 500 kts 168°
2026-05-05 06:37 -4.89933 19.24643 32984 ft 500 kts 168°
2026-05-05 06:37 -4.96813 19.25988 32983 ft 501 kts 168°
2026-05-05 06:38 -5.03657 19.27323 32987 ft 501 kts 168°
2026-05-05 06:38 -5.10503 19.28659 32987 ft 501 kts 168°
2026-05-05 06:39 -5.17247 19.30229 32991 ft 500 kts 161°
2026-05-05 06:39 -5.23831 19.32490 32993 ft 500 kts 160°
2026-05-05 06:40 -5.30404 19.34777 32995 ft 500 kts 160°
2026-05-05 06:40 -5.36984 19.37028 32995 ft 500 kts 160°
2026-05-05 06:41 -5.43567 19.39265 32995 ft 500 kts 160°
2026-05-05 06:41 -5.50149 19.41496 33000 ft 499 kts 160°
2026-05-05 06:42 -5.56734 19.43734 33002 ft 499 kts 160°
2026-05-05 06:42 -5.63345 19.45977 33318 ft 503 kts 161°
2026-05-05 06:42 -5.66654 19.47101 33666 ft 501 kts 161°
2026-05-05 06:43 -5.69956 19.48223 34058 ft 499 kts 161°
2026-05-05 06:43 -5.73243 19.49340 34392 ft 497 kts 161°
2026-05-05 06:43 -5.76521 19.50454 34619 ft 499 kts 161°
2026-05-05 06:43 -5.79817 19.51575 34776 ft 502 kts 161°
2026-05-05 06:44 -5.83127 19.52700 34920 ft 502 kts 161°
2026-05-05 06:44 -5.89866 19.54550 34997 ft 501 kts 166°
2026-05-05 06:45 -5.96629 19.56198 34997 ft 499 kts 166°
2026-05-05 06:45 -6.03376 19.57851 34999 ft 498 kts 166°
2026-05-05 06:46 -6.10049 19.59509 34996 ft 497 kts 166°
2026-05-05 06:46 -6.16763 19.61184 34997 ft 497 kts 166°
2026-05-05 06:47 -6.23484 19.62862 35002 ft 498 kts 166°
2026-05-05 06:47 -6.30218 19.64542 34998 ft 499 kts 166°
2026-05-05 06:48 -6.36970 19.66226 35009 ft 500 kts 166°
2026-05-05 06:48 -6.43735 19.67914 34999 ft 501 kts 166°
2026-05-05 06:49 -6.50518 19.69609 34998 ft 503 kts 166°
2026-05-05 06:49 -6.57317 19.71305 35007 ft 504 kts 166°
2026-05-05 06:50 -6.64131 19.73010 35013 ft 505 kts 166°
2026-05-05 06:50 -6.70946 19.74711 35006 ft 504 kts 166°
2026-05-05 06:51 -6.77752 19.76410 35019 ft 504 kts 166°
2026-05-05 06:51 -6.84577 19.77980 35017 ft 502 kts 168°
2026-05-05 06:52 -6.91396 19.79471 35016 ft 501 kts 168°
2026-05-05 06:52 -6.98194 19.80976 35014 ft 500 kts 168°
2026-05-05 06:53 -7.04983 19.82498 35015 ft 499 kts 168°
2026-05-05 06:53 -7.11755 19.84019 35016 ft 498 kts 168°
2026-05-05 06:54 -7.18521 19.85538 35017 ft 498 kts 168°
2026-05-05 06:54 -7.25292 19.87057 35016 ft 499 kts 168°
2026-05-05 06:55 -7.32072 19.88592 35021 ft 500 kts 168°
2026-05-05 06:55 -7.38859 19.90135 35019 ft 500 kts 168°
2026-05-05 06:56 -7.45615 19.91668 35029 ft 501 kts 168°
2026-05-05 06:56 -7.52431 19.93215 35029 ft 502 kts 168°
2026-05-05 06:57 -7.59258 19.94765 35024 ft 503 kts 168°
2026-05-05 06:57 -7.66091 19.96317 35026 ft 504 kts 168°
2026-05-05 06:58 -7.72932 19.97871 35030 ft 504 kts 168°
2026-05-05 06:58 -7.79770 19.99425 35027 ft 503 kts 168°
2026-05-05 06:59 -7.86602 20.00979 35034 ft 503 kts 168°
2026-05-05 06:59 -7.93438 20.02534 35030 ft 503 kts 168°
2026-05-05 07:00 -8.00259 20.04086 35037 ft 503 kts 168°
2026-05-05 07:00 -8.07086 20.05664 35045 ft 503 kts 168°
2026-05-05 07:01 -8.13904 20.07254 35039 ft 503 kts 168°
2026-05-05 07:01 -8.20721 20.08841 35045 ft 502 kts 168°
2026-05-05 07:02 -8.27531 20.10425 35042 ft 502 kts 168°
2026-05-05 07:02 -8.34335 20.12009 35041 ft 501 kts 168°
2026-05-05 07:03 -8.41129 20.13588 35043 ft 501 kts 168°
2026-05-05 07:03 -8.47916 20.15165 35045 ft 500 kts 168°
2026-05-05 07:04 -8.54699 20.16744 35043 ft 500 kts 168°
2026-05-05 07:04 -8.61477 20.18325 35046 ft 500 kts 168°
2026-05-05 07:05 -8.68263 20.19906 35039 ft 500 kts 168°
2026-05-05 07:05 -8.75049 20.21487 35038 ft 500 kts 168°
2026-05-05 07:06 -8.81829 20.23067 35037 ft 501 kts 168°
2026-05-05 07:06 -8.88618 20.24652 35034 ft 501 kts 168°
2026-05-05 07:07 -8.95373 20.26226 35038 ft 501 kts 168°
2026-05-05 07:07 -9.02166 20.27812 35035 ft 502 kts 168°
2026-05-05 07:08 -9.08976 20.29402 35038 ft 502 kts 168°
2026-05-05 07:08 -9.15796 20.30994 35036 ft 503 kts 168°
2026-05-05 07:09 -9.22622 20.32589 35043 ft 504 kts 168°
2026-05-05 07:09 -9.29454 20.34189 35044 ft 504 kts 168°
2026-05-05 07:10 -9.36296 20.35788 35036 ft 505 kts 168°
2026-05-05 07:10 -9.43145 20.37390 35036 ft 505 kts 168°
2026-05-05 07:11 -9.49988 20.38992 35036 ft 505 kts 168°
2026-05-05 07:11 -9.56839 20.40596 35038 ft 505 kts 168°
2026-05-05 07:12 -9.63693 20.42202 35048 ft 505 kts 168°
2026-05-05 07:12 -9.70490 20.43994 35041 ft 505 kts 161°
2026-05-05 07:13 -9.77020 20.46592 35042 ft 504 kts 159°
2026-05-05 07:13 -9.83469 20.49244 35041 ft 503 kts 159°
2026-05-05 07:14 -9.89960 20.51882 35044 ft 502 kts 159°
2026-05-05 07:14 -9.96454 20.54493 35053 ft 502 kts 159°
2026-05-05 07:15 -10.02957 20.57101 35051 ft 503 kts 160°
2026-05-05 07:15 -10.09463 20.59710 35053 ft 502 kts 160°
2026-05-05 07:16 -10.15964 20.62323 35044 ft 503 kts 159°
2026-05-05 07:16 -10.22468 20.64941 35053 ft 503 kts 159°
2026-05-05 07:17 -10.28973 20.67556 35056 ft 503 kts 160°
2026-05-05 07:17 -10.35484 20.70174 35056 ft 504 kts 160°
2026-05-05 07:18 -10.42006 20.72801 35053 ft 504 kts 160°
2026-05-05 07:18 -10.48527 20.75429 35061 ft 504 kts 160°
2026-05-05 07:19 -10.55050 20.78055 35054 ft 505 kts 160°
2026-05-05 07:19 -10.61578 20.80687 35062 ft 505 kts 160°
2026-05-05 07:20 -10.68111 20.83322 35056 ft 505 kts 160°
2026-05-05 07:20 -10.74646 20.85961 35059 ft 505 kts 160°
2026-05-05 07:21 -10.81179 20.88598 35057 ft 505 kts 160°
2026-05-05 07:21 -10.87670 20.91218 35058 ft 505 kts 160°
2026-05-05 07:22 -10.94207 20.93861 35057 ft 505 kts 160°
2026-05-05 07:22 -11.00743 20.96505 35061 ft 505 kts 160°
2026-05-05 07:23 -11.06216 20.98716 35056 ft 505 kts 160°
2026-05-05 07:23 -11.12747 21.01359 35057 ft 505 kts 160°
2026-05-05 07:24 -11.19274 21.04001 35059 ft 505 kts 160°
2026-05-05 07:24 -11.25762 21.06629 35062 ft 505 kts 160°
2026-05-05 07:25 -11.32295 21.09274 35055 ft 506 kts 160°
2026-05-05 07:25 -11.38836 21.11926 35059 ft 506 kts 160°
2026-05-05 07:26 -11.45376 21.14579 35059 ft 506 kts 160°
2026-05-05 07:26 -11.51916 21.17234 35060 ft 506 kts 160°
2026-05-05 07:27 -11.58459 21.19892 35060 ft 506 kts 160°
2026-05-05 07:27 -11.64990 21.22545 35058 ft 506 kts 160°
2026-05-05 07:28 -11.71532 21.25203 35064 ft 506 kts 160°
2026-05-05 07:28 -11.78078 21.27866 35059 ft 506 kts 160°
2026-05-05 07:29 -11.84624 21.30527 35060 ft 506 kts 160°
2026-05-05 07:29 -11.91160 21.33187 35063 ft 506 kts 160°
2026-05-05 07:30 -11.97702 21.35852 35059 ft 506 kts 160°
2026-05-05 07:30 -12.07469 21.39835 35059 ft 506 kts 160°
2026-05-05 07:31 -12.14009 21.42501 35065 ft 506 kts 160°
2026-05-05 07:31 -12.20537 21.45165 35058 ft 505 kts 160°
2026-05-05 07:32 -12.27075 21.47833 35067 ft 505 kts 160°
2026-05-05 07:32 -12.33600 21.50498 35054 ft 505 kts 160°
2026-05-05 07:33 -12.40116 21.53163 35050 ft 504 kts 160°
2026-05-05 07:33 -12.46623 21.55823 35050 ft 503 kts 160°
2026-05-05 07:34 -12.53114 21.58477 35049 ft 502 kts 160°
2026-05-05 07:34 -12.59605 21.61133 35052 ft 502 kts 160°
2026-05-05 07:35 -12.66042 21.63772 35044 ft 501 kts 160°
2026-05-05 07:35 -12.72513 21.66424 35046 ft 501 kts 160°
2026-05-05 07:36 -12.78978 21.69076 35044 ft 500 kts 160°
2026-05-05 07:36 -12.85443 21.71727 35042 ft 500 kts 160°
2026-05-05 07:37 -12.91906 21.74382 35049 ft 500 kts 160°
2026-05-05 07:37 -12.98376 21.77009 35047 ft 500 kts 161°
2026-05-05 07:38 -13.04885 21.79485 35045 ft 499 kts 161°
2026-05-05 07:38 -13.11410 21.81940 35039 ft 500 kts 161°
2026-05-05 07:39 -13.17926 21.84415 35044 ft 500 kts 161°
2026-05-05 07:39 -13.24454 21.86912 35049 ft 500 kts 161°
2026-05-05 07:40 -13.30977 21.89409 35046 ft 501 kts 161°
2026-05-05 07:40 -13.37509 21.91911 35043 ft 501 kts 161°
2026-05-05 07:41 -13.44001 21.94396 35042 ft 501 kts 161°
2026-05-05 07:41 -13.50523 21.96895 35040 ft 500 kts 161°
2026-05-05 07:42 -13.57037 21.99393 35045 ft 500 kts 161°
2026-05-05 07:42 -13.63552 22.01886 35035 ft 499 kts 161°
2026-05-05 07:43 -13.70068 22.04358 35041 ft 499 kts 161°
2026-05-05 07:43 -13.76578 22.06829 35040 ft 499 kts 161°
2026-05-05 07:44 -13.83081 22.09305 35038 ft 499 kts 161°
2026-05-05 07:44 -13.89594 22.11789 35040 ft 499 kts 162°
2026-05-05 07:45 -13.96105 22.14270 35044 ft 499 kts 161°
2026-05-05 07:45 -14.02617 22.16755 35043 ft 499 kts 162°
2026-05-05 07:46 -14.09131 22.19241 35046 ft 500 kts 161°
2026-05-05 07:46 -14.15655 22.21734 35044 ft 500 kts 161°
2026-05-05 07:47 -14.22183 22.24229 35045 ft 501 kts 161°
2026-05-05 07:47 -14.28715 22.26727 35045 ft 501 kts 161°
2026-05-05 07:48 -14.35252 22.29230 35042 ft 501 kts 161°
2026-05-05 07:48 -14.41792 22.31742 35041 ft 502 kts 160°
2026-05-05 07:49 -14.48227 22.34550 35037 ft 502 kts 158°
2026-05-05 07:49 -14.54612 22.37468 35040 ft 502 kts 158°
2026-05-05 07:50 -14.61008 22.40380 35046 ft 502 kts 158°
2026-05-05 07:50 -14.67420 22.43276 35046 ft 503 kts 159°
2026-05-05 07:51 -14.73846 22.46170 35046 ft 504 kts 158°
2026-05-05 07:51 -14.80282 22.49072 35044 ft 505 kts 158°
2026-05-05 07:52 -14.86729 22.51984 35042 ft 506 kts 158°
2026-05-05 07:52 -14.93146 22.54883 35046 ft 507 kts 158°
2026-05-05 07:53 -14.99610 22.57803 35045 ft 507 kts 158°
2026-05-05 07:53 -15.06124 22.60748 35042 ft 508 kts 158°
2026-05-05 07:54 -15.12560 22.63662 35042 ft 508 kts 158°
2026-05-05 07:54 -15.19040 22.66595 35036 ft 509 kts 159°
2026-05-05 07:55 -15.25532 22.69539 35044 ft 509 kts 159°
2026-05-05 07:55 -15.32028 22.72486 35038 ft 510 kts 159°
2026-05-05 07:56 -15.38529 22.75437 35036 ft 510 kts 159°
2026-05-05 07:56 -15.45031 22.78390 35039 ft 510 kts 158°
2026-05-05 07:57 -15.51544 22.81349 35033 ft 511 kts 159°
2026-05-05 07:57 -15.58062 22.84314 35033 ft 512 kts 159°
2026-05-05 07:58 -15.64592 22.87279 35037 ft 512 kts 159°
2026-05-05 07:58 -15.71194 22.90056 35035 ft 512 kts 161°
2026-05-05 07:59 -15.77832 22.92741 35036 ft 512 kts 161°
2026-05-05 07:59 -15.84465 22.95449 35031 ft 512 kts 161°
2026-05-05 08:00 -15.91093 22.98188 35038 ft 513 kts 161°
2026-05-05 08:00 -15.97671 23.00918 35041 ft 513 kts 161°
2026-05-05 08:01 -16.04302 23.03670 35034 ft 513 kts 161°
2026-05-05 08:01 -16.10935 23.06425 35039 ft 514 kts 161°
2026-05-05 08:02 -16.17580 23.09183 35034 ft 514 kts 161°
2026-05-05 08:02 -16.24224 23.11945 35029 ft 514 kts 161°
2026-05-05 08:03 -16.30871 23.14709 35034 ft 514 kts 161°
2026-05-05 08:03 -16.37526 23.17481 35033 ft 515 kts 161°
2026-05-05 08:04 -16.44180 23.20254 35036 ft 516 kts 161°
2026-05-05 08:04 -16.50844 23.23031 35032 ft 516 kts 161°
2026-05-05 08:05 -16.57517 23.25815 35034 ft 516 kts 161°
2026-05-05 08:05 -16.64140 23.28580 35033 ft 516 kts 161°
2026-05-05 08:06 -16.70849 23.31384 35043 ft 516 kts 161°
2026-05-05 08:06 -16.77525 23.34177 35037 ft 517 kts 161°
2026-05-05 08:07 -16.84160 23.36953 35046 ft 518 kts 161°
2026-05-05 08:07 -16.90893 23.39771 35051 ft 519 kts 161°
2026-05-05 08:08 -16.97550 23.42561 35046 ft 519 kts 161°
2026-05-05 08:08 -17.04256 23.45374 35052 ft 519 kts 161°
2026-05-05 08:09 -17.10969 23.48192 35048 ft 520 kts 161°
2026-05-05 08:09 -17.17684 23.51013 35055 ft 520 kts 161°
2026-05-05 08:10 -17.24397 23.53836 35056 ft 520 kts 161°
2026-05-05 08:10 -17.31114 23.56662 35055 ft 520 kts 161°
2026-05-05 08:11 -17.37825 23.59487 35054 ft 520 kts 161°
2026-05-05 08:11 -17.44526 23.62313 35059 ft 519 kts 161°
2026-05-05 08:12 -17.50102 23.64664 35066 ft 519 kts 161°
2026-05-05 08:12 -17.56799 23.67492 35060 ft 519 kts 161°
2026-05-05 08:13 -17.63402 23.70593 35059 ft 521 kts 157°
2026-05-05 08:13 -17.69937 23.73881 35055 ft 521 kts 158°
2026-05-05 08:14 -17.76550 23.76959 35058 ft 520 kts 161°
2026-05-05 08:14 -17.83238 23.79821 35063 ft 519 kts 161°
2026-05-05 08:15 -17.89918 23.82754 35060 ft 521 kts 160°
2026-05-05 08:15 -17.96599 23.85683 35063 ft 520 kts 161°
2026-05-05 08:16 -18.03291 23.88583 35059 ft 521 kts 161°
2026-05-05 08:16 -18.09992 23.91493 35064 ft 521 kts 161°
2026-05-05 08:17 -18.16701 23.94421 35063 ft 522 kts 161°
2026-05-05 08:17 -18.23405 23.97347 35071 ft 522 kts 161°
2026-05-05 08:18 -18.30126 24.00280 35063 ft 523 kts 161°
2026-05-05 08:18 -18.36833 24.03242 35066 ft 524 kts 160°
2026-05-05 08:19 -18.43510 24.06333 35066 ft 524 kts 160°
2026-05-05 08:19 -18.50131 24.09422 35065 ft 524 kts 160°
2026-05-05 08:20 -18.56798 24.12516 35067 ft 524 kts 160°
2026-05-05 08:20 -18.63472 24.15602 35078 ft 524 kts 160°
2026-05-05 08:21 -18.70149 24.18693 35065 ft 524 kts 160°
2026-05-05 08:21 -18.76825 24.21788 35072 ft 524 kts 160°
2026-05-05 08:22 -18.83499 24.24886 35055 ft 525 kts 160°
2026-05-05 08:22 -18.90185 24.27991 35069 ft 525 kts 160°
2026-05-05 08:23 -18.96949 24.30879 35056 ft 524 kts 163°
2026-05-05 08:23 -19.03775 24.33608 35057 ft 525 kts 163°
2026-05-05 08:24 -19.10594 24.36411 35063 ft 526 kts 163°
2026-05-05 08:24 -19.17394 24.39329 35056 ft 528 kts 161°
2026-05-05 08:25 -19.24155 24.42373 35056 ft 529 kts 161°
2026-05-05 08:25 -19.30930 24.45424 35049 ft 529 kts 161°
2026-05-05 08:26 -19.37701 24.48451 35047 ft 528 kts 161°
2026-05-05 08:26 -19.44479 24.51474 35051 ft 529 kts 161°
2026-05-05 08:27 -19.51260 24.54503 35043 ft 529 kts 161°
2026-05-05 08:27 -19.58035 24.57535 35039 ft 529 kts 161°
2026-05-05 08:28 -19.64813 24.60571 35033 ft 529 kts 161°
2026-05-05 08:28 -19.71600 24.63597 35044 ft 530 kts 162°
2026-05-05 08:29 -19.78413 24.66583 35035 ft 530 kts 162°
2026-05-05 08:30 -19.88598 24.71049 35029 ft 531 kts 162°
2026-05-05 08:30 -19.95424 24.74056 35028 ft 531 kts 162°
2026-05-05 08:31 -20.02249 24.77065 35039 ft 532 kts 162°
2026-05-05 08:31 -20.09097 24.80086 35033 ft 533 kts 162°
2026-05-05 08:32 -20.15954 24.83115 35028 ft 534 kts 162°
2026-05-05 08:32 -20.22863 24.85984 35024 ft 532 kts 165°
2026-05-05 08:33 -20.29865 24.88560 35021 ft 532 kts 165°
2026-05-05 08:33 -20.36854 24.91196 35024 ft 533 kts 165°
2026-05-05 08:34 -20.43819 24.93917 35006 ft 534 kts 161°
2026-05-05 08:34 -20.50605 24.97175 35017 ft 535 kts 159°
2026-05-05 08:35 -20.57355 25.00541 35012 ft 535 kts 159°
2026-05-05 08:35 -20.64107 25.03877 35028 ft 535 kts 159°
2026-05-05 08:36 -20.70877 25.07196 35015 ft 535 kts 159°
2026-05-05 08:36 -20.77651 25.10515 35003 ft 535 kts 159°
2026-05-05 08:37 -20.84424 25.13839 35015 ft 536 kts 159°
2026-05-05 08:37 -20.91197 25.17170 35010 ft 536 kts 159°
2026-05-05 08:38 -20.97985 25.20510 35009 ft 537 kts 159°
2026-05-05 08:38 -21.04839 25.23673 35000 ft 536 kts 162°
2026-05-05 08:39 -21.11785 25.26553 35017 ft 536 kts 163°
2026-05-05 08:39 -21.18751 25.29424 35007 ft 536 kts 163°
2026-05-05 08:40 -21.25711 25.32336 35002 ft 537 kts 163°
2026-05-05 08:40 -21.32622 25.35253 34988 ft 537 kts 163°
2026-05-05 08:41 -21.39586 25.38191 35011 ft 537 kts 163°
2026-05-05 08:41 -21.46550 25.41130 34993 ft 538 kts 163°
2026-05-05 08:42 -21.53519 25.44073 34987 ft 538 kts 163°
2026-05-05 08:42 -21.60493 25.47022 34986 ft 538 kts 163°
2026-05-05 08:43 -21.67415 25.50108 35005 ft 540 kts 161°
2026-05-05 08:43 -21.74330 25.53313 34993 ft 541 kts 161°
2026-05-05 08:44 -21.81258 25.56516 34978 ft 542 kts 161°
2026-05-05 08:44 -21.88198 25.59705 34971 ft 543 kts 161°
2026-05-05 08:45 -21.95149 25.62890 34988 ft 543 kts 161°
2026-05-05 08:45 -22.02111 25.66081 34969 ft 544 kts 161°
2026-05-05 08:46 -22.09072 25.69280 34972 ft 544 kts 161°
2026-05-05 08:46 -22.16038 25.72485 34967 ft 544 kts 161°
2026-05-05 08:47 -22.23001 25.75689 34975 ft 544 kts 161°
2026-05-05 08:47 -22.29969 25.78902 34967 ft 544 kts 161°
2026-05-05 08:48 -22.36931 25.82115 34964 ft 545 kts 161°
2026-05-05 08:48 -22.43903 25.85337 34961 ft 545 kts 161°
2026-05-05 08:49 -22.50872 25.88561 34971 ft 546 kts 161°
2026-05-05 08:49 -22.57861 25.91794 34968 ft 547 kts 161°
2026-05-05 08:50 -22.64814 25.95016 34961 ft 548 kts 161°
2026-05-05 08:50 -22.71820 25.98269 34948 ft 547 kts 161°
2026-05-05 08:51 -22.78817 26.01520 34967 ft 548 kts 161°
2026-05-05 08:51 -22.85835 26.04783 34958 ft 549 kts 161°
2026-05-05 08:52 -22.92851 26.08049 34950 ft 549 kts 161°
2026-05-05 08:52 -22.99866 26.11320 34946 ft 549 kts 161°
2026-05-05 08:53 -23.06882 26.14596 34946 ft 549 kts 161°
2026-05-05 08:53 -23.13896 26.17873 34938 ft 548 kts 161°
2026-05-05 08:54 -23.20901 26.21147 34934 ft 548 kts 161°
2026-05-05 08:54 -23.27911 26.24430 34932 ft 548 kts 161°
2026-05-05 08:55 -23.34923 26.27717 34923 ft 549 kts 161°
2026-05-05 08:55 -23.41943 26.31013 34918 ft 549 kts 161°
2026-05-05 08:56 -23.48960 26.34309 34936 ft 550 kts 161°
2026-05-05 08:56 -23.55984 26.37614 34957 ft 550 kts 161°
2026-05-05 08:57 -23.63016 26.40928 34944 ft 552 kts 161°
2026-05-05 08:57 -23.68882 26.43692 34938 ft 553 kts 161°
2026-05-05 08:58 -23.75950 26.47019 34937 ft 554 kts 161°
2026-05-05 08:58 -23.84183 26.50871 34962 ft 555 kts 161°
2026-05-05 08:59 -23.91284 26.54200 34944 ft 556 kts 161°
2026-05-05 08:59 -23.97238 26.56999 34914 ft 556 kts 161°
2026-05-05 09:00 -24.04342 26.60341 34936 ft 555 kts 161°
2026-05-05 09:00 -24.11387 26.63660 34960 ft 555 kts 161°
2026-05-05 09:01 -24.18492 26.67011 34953 ft 556 kts 161°
2026-05-05 09:01 -24.25592 26.70364 34951 ft 556 kts 161°
2026-05-05 09:02 -24.32429 26.74413 34951 ft 562 kts 149°
2026-05-05 09:02 -24.38614 26.79690 34951 ft 566 kts 140°
2026-05-05 09:03 -24.44458 26.85485 34956 ft 567 kts 139°
2026-05-05 09:03 -24.50295 26.91272 34604 ft 565 kts 140°
2026-05-05 09:03 -24.53236 26.94156 33794 ft 569 kts 140°
2026-05-05 09:04 -24.56208 26.97055 32996 ft 575 kts 140°
2026-05-05 09:04 -24.59184 26.99952 32531 ft 568 kts 140°
2026-05-05 09:04 -24.62128 27.02821 32020 ft 563 kts 140°
2026-05-05 09:04 -24.65045 27.05666 31538 ft 558 kts 140°
2026-05-05 09:05 -24.67932 27.08483 31058 ft 553 kts 140°
2026-05-05 09:05 -24.70796 27.11282 30581 ft 549 kts 140°
2026-05-05 09:05 -24.73642 27.14066 30108 ft 545 kts 140°
2026-05-05 09:05 -24.76463 27.16832 29537 ft 541 kts 140°
2026-05-05 09:06 -24.79262 27.19576 29016 ft 535 kts 140°
2026-05-05 09:06 -24.82028 27.22289 28563 ft 530 kts 140°
2026-05-05 09:06 -24.84764 27.24973 28065 ft 525 kts 140°
2026-05-05 09:06 -24.87476 27.27635 27560 ft 520 kts 140°
2026-05-05 09:07 -24.90167 27.30279 27100 ft 516 kts 140°
2026-05-05 09:07 -24.92833 27.32900 26630 ft 512 kts 140°
2026-05-05 09:07 -24.95481 27.35504 26156 ft 508 kts 140°
2026-05-05 09:07 -24.98105 27.38086 25695 ft 504 kts 140°
2026-05-05 09:08 -25.00775 27.40544 25203 ft 495 kts 149°
2026-05-05 09:08 -25.03729 27.42302 24753 ft 485 kts 163°
2026-05-05 09:08 -25.06913 27.43375 24293 ft 474 kts 174°
2026-05-05 09:08 -25.10139 27.43769 23793 ft 459 kts 186°
2026-05-05 09:09 -25.13319 27.43756 23293 ft 455 kts 187°
2026-05-05 09:09 -25.16480 27.43743 22788 ft 452 kts 186°
2026-05-05 09:09 -25.19616 27.43746 22310 ft 449 kts 186°
2026-05-05 09:09 -25.22727 27.43766 21865 ft 445 kts 185°
2026-05-05 09:10 -25.25811 27.43798 21409 ft 442 kts 185°
2026-05-05 09:10 -25.28875 27.43834 20968 ft 438 kts 185°
2026-05-05 09:10 -25.31915 27.43876 20525 ft 435 kts 185°
2026-05-05 09:10 -25.34930 27.43916 20124 ft 432 kts 185°
2026-05-05 09:11 -25.37933 27.43956 19647 ft 431 kts 185°
2026-05-05 09:11 -25.40924 27.43995 19213 ft 428 kts 184°
2026-05-05 09:11 -25.43899 27.44034 18764 ft 426 kts 184°
2026-05-05 09:11 -25.46858 27.44072 18323 ft 424 kts 184°
2026-05-05 09:12 -25.49806 27.44111 17817 ft 423 kts 184°
2026-05-05 09:12 -25.52721 27.44150 17340 ft 415 kts 184°
2026-05-05 09:12 -25.55595 27.44189 16923 ft 411 kts 184°
2026-05-05 09:12 -25.58446 27.44226 16488 ft 408 kts 184°
2026-05-05 09:13 -25.61258 27.44262 16231 ft 399 kts 184°
2026-05-05 09:13 -25.63999 27.44299 16067 ft 388 kts 184°
2026-05-05 09:13 -25.66662 27.44336 15902 ft 378 kts 184°
2026-05-05 09:13 -25.69247 27.44478 15735 ft 367 kts 173°
2026-05-05 09:14 -25.71604 27.45485 15558 ft 364 kts 148°
2026-05-05 09:14 -25.73518 27.47283 15233 ft 360 kts 128°
2026-05-05 09:14 -25.74921 27.49541 14905 ft 353 kts 120°
2026-05-05 09:14 -25.76196 27.51851 14587 ft 350 kts 119°
2026-05-05 09:15 -25.77452 27.54155 14227 ft 348 kts 119°
2026-05-05 09:15 -25.78702 27.56437 13915 ft 345 kts 119°
2026-05-05 09:15 -25.79953 27.58708 13543 ft 344 kts 120°
2026-05-05 09:15 -25.81203 27.60959 13180 ft 340 kts 120°
2026-05-05 09:16 -25.82443 27.63181 12841 ft 336 kts 120°
2026-05-05 09:16 -25.83665 27.65376 12523 ft 332 kts 120°
2026-05-05 09:16 -25.84879 27.67550 12240 ft 332 kts 120°
2026-05-05 09:16 -25.86103 27.69740 11907 ft 335 kts 120°
2026-05-05 09:17 -25.87337 27.71950 11579 ft 340 kts 120°
2026-05-05 09:17 -25.88585 27.74184 11252 ft 340 kts 119°
2026-05-05 09:17 -25.89812 27.76374 11038 ft 334 kts 120°
2026-05-05 09:17 -25.91034 27.78560 10994 ft 326 kts 119°
2026-05-05 09:18 -25.92215 27.80687 10886 ft 330 kts 119°
2026-05-05 09:18 -25.93430 27.82875 10779 ft 335 kts 119°
2026-05-05 09:18 -25.94655 27.85083 10692 ft 336 kts 119°
2026-05-05 09:18 -25.95881 27.87289 10550 ft 335 kts 119°
2026-05-05 09:19 -25.97104 27.89485 10455 ft 333 kts 119°
2026-05-05 09:19 -25.98316 27.91663 10358 ft 330 kts 119°
2026-05-05 09:19 -25.99519 27.93829 10249 ft 327 kts 119°
2026-05-05 09:19 -26.00705 27.95962 10149 ft 322 kts 119°
2026-05-05 09:20 -26.01874 27.98072 10026 ft 319 kts 119°
2026-05-05 09:20 -26.03032 28.00166 9935 ft 316 kts 119°
2026-05-05 09:20 -26.04182 28.02244 9804 ft 314 kts 119°
2026-05-05 09:20 -26.05323 28.04301 9705 ft 310 kts 119°
2026-05-05 09:21 -26.06436 28.06307 9607 ft 298 kts 119°
2026-05-05 09:21 -26.07633 28.08104 9485 ft 283 kts 140°
2026-05-05 09:21 -26.09321 28.09155 9461 ft 278 kts 166°
2026-05-05 09:21 -26.11213 28.09541 9389 ft 276 kts 178°
2026-05-05 09:22 -26.13122 28.09771 9307 ft 275 kts 178°
2026-05-05 09:22 -26.14975 28.09668 9146 ft 260 kts 205°
2026-05-05 09:22 -26.16652 28.08968 9161 ft 261 kts 207°
2026-05-05 09:22 -26.18381 28.08252 9063 ft 266 kts 206°
2026-05-05 09:23 -26.20109 28.07549 8980 ft 263 kts 206°
2026-05-05 09:23 -26.21816 28.06858 8868 ft 259 kts 206°
2026-05-05 09:23 -26.23497 28.06180 8784 ft 256 kts 207°
2026-05-05 09:23 -26.25170 28.05503 8685 ft 257 kts 207°
2026-05-05 09:24 -26.26869 28.04810 8523 ft 262 kts 207°
2026-05-05 09:24 -26.28574 28.04116 8426 ft 260 kts 206°
2026-05-05 09:24 -26.30261 28.03437 8349 ft 256 kts 205°
2026-05-05 09:24 -26.31938 28.02761 8275 ft 257 kts 207°
2026-05-05 09:25 -26.33627 28.02075 8177 ft 260 kts 207°
2026-05-05 09:25 -26.35298 28.01399 8137 ft 250 kts 206°
2026-05-05 09:25 -26.36970 28.01003 8043 ft 249 kts 178°
2026-05-05 09:25 -26.38613 28.01560 8000 ft 252 kts 145°
2026-05-05 09:26 -26.39793 28.02970 7975 ft 246 kts 112°
2026-05-05 09:26 -26.40171 28.04754 7956 ft 230 kts 82°
2026-05-05 09:26 -26.39995 28.06499 7965 ft 224 kts 68°
2026-05-05 09:26 -26.39558 28.08178 7962 ft 227 kts 64°
2026-05-05 09:27 -26.39047 28.09856 7979 ft 229 kts 64°
2026-05-05 09:27 -26.38552 28.11531 7974 ft 229 kts 64°
2026-05-05 09:27 -26.38058 28.13195 7942 ft 223 kts 62°
2026-05-05 09:27 -26.37460 28.14766 7953 ft 218 kts 54°
2026-05-05 09:28 -26.36702 28.16240 7952 ft 219 kts 52°
2026-05-05 09:28 -26.35924 28.17709 7961 ft 220 kts 49°
2026-05-05 09:28 -26.34849 28.18798 7948 ft 204 kts 18°
2026-05-05 09:28 -26.33537 28.19387 7974 ft 204 kts 14°
2026-05-05 09:29 -26.32196 28.19901 7991 ft 200 kts 11°
2026-05-05 09:29 -26.30905 28.20325 7965 ft 186 kts
2026-05-05 09:29 -26.29705 28.20700 7944 ft 175 kts
2026-05-05 09:29 -26.28538 28.21060 7927 ft 175 kts
2026-05-05 09:30 -26.27365 28.21425 7694 ft 173 kts
2026-05-05 09:30 -26.26227 28.21780 7443 ft 167 kts
2026-05-05 09:30 -26.25122 28.22123 7290 ft 161 kts 10°
2026-05-05 09:30 -26.24099 28.22446 7054 ft 142 kts
2026-05-05 09:31 -26.23150 28.22735 6907 ft 153 kts
2026-05-05 09:31 -26.22109 28.23060 6705 ft 153 kts 11°
2026-05-05 09:31 -26.21080 28.23381 6516 ft 154 kts 12°
2026-05-05 09:31 -26.20061 28.23699 6297 ft 153 kts 11°
2026-05-05 09:32 -26.19067 28.24023 6091 ft 145 kts 11°
2026-05-05 09:32 -26.18056 28.24318 5899 ft 154 kts 14°
2026-05-05 09:32 -26.17008 28.24648 5656 ft 156 kts 14°
2026-05-05 09:32 -26.15991 28.24965 5539 ft 146 kts 14°
2026-05-05 09:33 -26.15109 28.25236 5514 ft 111 kts 16°
2026-05-05 09:33 -26.14546 28.25411 5510 ft 59 kts 15°
2026-05-05 09:33 -26.14326 28.25476 5514 ft 24 kts
2026-05-05 09:33 -26.14173 28.25472 5516 ft 22 kts 352°
2026-05-05 09:34 -26.14034 28.25446 5515 ft 21 kts 350°
2026-05-05 09:34 -26.13890 28.25420 5514 ft 20 kts 352°
2026-05-05 09:34 -26.13765 28.25445 5513 ft 12 kts 17°
2026-05-05 09:34 -26.13696 28.25467 5511 ft 11 kts 15°
2026-05-05 09:35 -26.13614 28.25492 5507 ft 14 kts 15°
2026-05-05 09:35 -26.13408 28.25515 5516 ft 15 kts 348°
2026-05-05 09:35 -26.13304 28.25490 5522 ft 15 kts 348°
2026-05-05 09:36 -26.13199 28.25466 5527 ft 15 kts 348°
2026-05-05 09:36 -26.13096 28.25435 5530 ft 16 kts 338°
2026-05-05 09:36 -26.12994 28.25367 5531 ft 18 kts 321°
2026-05-05 09:36 -26.12906 28.25258 5530 ft 20 kts 303°
2026-05-05 09:37 -26.12849 28.25108 5530 ft 22 kts 286°
2026-05-05 09:37 -26.12806 28.24933 5530 ft 23 kts 286°
2026-05-05 09:37 -26.12759 28.24747 5531 ft 27 kts 285°
2026-05-05 09:37 -26.12710 28.24552 5534 ft 24 kts 285°
2026-05-05 09:38 -26.12672 28.24401 5544 ft 16 kts 286°
2026-05-05 09:38 -26.12647 28.24304 5547 ft 12 kts 285°
2026-05-05 09:38 -26.12622 28.24205 5547 ft 14 kts 286°
2026-05-05 09:38 -26.12594 28.24096 5549 ft 15 kts 284°
2026-05-05 09:39 -26.12569 28.23992 5549 ft 13 kts 285°
2026-05-05 09:39 -26.12548 28.23913 5551 ft 3 kts 287°
2026-05-05 09:39 -26.12525 28.23894 5550 ft 7 kts 348°
2026-05-05 09:39 -26.12460 28.23907 5549 ft 12 kts 17°
2026-05-05 09:40 -26.12362 28.23940 5547 ft 17 kts 14°
2026-05-05 09:40 -26.12249 28.23973 5546 ft 12 kts 15°
2026-05-05 09:40 -26.12200 28.23990 5543 ft 10 kts 17°
2026-05-05 09:40 -26.12116 28.24016 5542 ft 15 kts 15°
2026-05-05 09:41 -26.11999 28.24050 5537 ft 19 kts 15°
2026-05-05 09:41 -26.11887 28.24088 5533 ft 18 kts 15°
2026-05-05 09:41 -26.11781 28.24119 5531 ft 14 kts 15°
2026-05-05 09:41 -26.11693 28.24147 5531 ft 13 kts 15°
2026-05-05 09:42 -26.11615 28.24170 5534 ft 9 kts 15°
2026-05-05 09:42 -26.11565 28.24186 5530 ft 6 kts 15°
2026-05-05 09:42 -26.11528 28.24198 5529 ft 5 kts 16°
2026-05-05 09:42 -26.11494 28.24195 5529 ft 5 kts 324°
2026-05-05 09:43 -26.11477 28.24162 5528 ft 4 kts 286°
2026-05-05 09:43 -26.11479 28.24148 5528 ft 2 kts 256°
2026-05-05 09:43 -26.11482 28.24131 5527 ft 3 kts 264°
2026-05-05 09:43 -26.11480 28.24105 5527 ft 4 kts 278°
2026-05-05 09:44 -26.11474 28.24074 5526 ft 3 kts 284°
2026-05-05 09:44 -26.11469 28.24055 5525 ft 0 kts 285°